<?xml version="1.0" encoding="UTF-8"?>
<gpx xmlns="http://www.topografix.com/GPX/1/1" xmlns:xsi="http://www.w3.org/2001/XMLSchema-instance" version="1.1" creator="Trace de Trail" xsi:schemaLocation="http://www.topografix.com/GPX/1/1 http://www.topografix.com/GPX/1/1/gpx.xsd">
  <metadata>
    <name>2027 - Polar Bear Trail - 30km</name>
    <desc>Parcours créé sur Trace de Trail</desc>
    <link href="https://tracedetrail.fr/fr/trace/355308">
      <text>Cartographie du parcours</text>
    </link>
    <time>2026-09-04T11:30:21+00:00</time>
  </metadata>
  <wpt lat="50.81866" lon="5.72663">
    <ele>56</ele>
    <type>depart</type>
  </wpt>
  <wpt lat="50.81861" lon="5.72659">
    <ele>57</ele>
    <type>arrivee</type>
  </wpt>
  <wpt lat="50.80915" lon="5.76204">
    <ele>139</ele>
    <type>ravitoc</type>
  </wpt>
  <wpt lat="50.78942" lon="5.75739">
    <ele>99</ele>
    <type>ravitoc</type>
  </wpt>
  <wpt lat="50.80337" lon="5.74119">
    <ele>75</ele>
    <type>ravitoc</type>
  </wpt>
  <trk>
    <name>2027 - Polar Bear Trail - 30km sur TraceDeTrail.fr</name>
    <src>Trace de Trail</src>
    <trkseg>
      <trkpt lat="50.81866" lon="5.72663">
        <ele>56</ele>
        <time>2026-09-04T11:30:21+00:00</time>
      </trkpt>
      <trkpt lat="50.81846" lon="5.72647">
        <ele>56</ele>
        <time>2026-09-04T11:30:24+00:00</time>
      </trkpt>
      <trkpt lat="50.81823" lon="5.72628">
        <ele>56</ele>
        <time>2026-09-04T11:30:27+00:00</time>
      </trkpt>
      <trkpt lat="50.81801" lon="5.72646">
        <ele>56</ele>
        <time>2026-09-04T11:30:30+00:00</time>
      </trkpt>
      <trkpt lat="50.81769" lon="5.72672">
        <ele>55</ele>
        <time>2026-09-04T11:30:33+00:00</time>
      </trkpt>
      <trkpt lat="50.81755" lon="5.72688">
        <ele>55</ele>
        <time>2026-09-04T11:30:36+00:00</time>
      </trkpt>
      <trkpt lat="50.81744" lon="5.72705">
        <ele>55</ele>
        <time>2026-09-04T11:30:39+00:00</time>
      </trkpt>
      <trkpt lat="50.81736" lon="5.72723">
        <ele>55</ele>
        <time>2026-09-04T11:30:42+00:00</time>
      </trkpt>
      <trkpt lat="50.81728" lon="5.72741">
        <ele>55</ele>
        <time>2026-09-04T11:30:45+00:00</time>
      </trkpt>
      <trkpt lat="50.81747" lon="5.7277">
        <ele>55</ele>
        <time>2026-09-04T11:30:48+00:00</time>
      </trkpt>
      <trkpt lat="50.81734" lon="5.72805">
        <ele>55</ele>
        <time>2026-09-04T11:30:51+00:00</time>
      </trkpt>
      <trkpt lat="50.81712" lon="5.72815">
        <ele>55</ele>
        <time>2026-09-04T11:30:54+00:00</time>
      </trkpt>
      <trkpt lat="50.81696" lon="5.7284">
        <ele>57</ele>
        <time>2026-09-04T11:30:57+00:00</time>
      </trkpt>
      <trkpt lat="50.81687" lon="5.72849">
        <ele>57</ele>
        <time>2026-09-04T11:31:00+00:00</time>
      </trkpt>
      <trkpt lat="50.8169" lon="5.72855">
        <ele>57</ele>
        <time>2026-09-04T11:31:03+00:00</time>
      </trkpt>
      <trkpt lat="50.81695" lon="5.72858">
        <ele>57</ele>
        <time>2026-09-04T11:31:06+00:00</time>
      </trkpt>
      <trkpt lat="50.81721" lon="5.7286">
        <ele>57</ele>
        <time>2026-09-04T11:31:09+00:00</time>
      </trkpt>
      <trkpt lat="50.81765" lon="5.72864">
        <ele>57</ele>
        <time>2026-09-04T11:31:12+00:00</time>
      </trkpt>
      <trkpt lat="50.81776" lon="5.72909">
        <ele>56</ele>
        <time>2026-09-04T11:31:15+00:00</time>
      </trkpt>
      <trkpt lat="50.81783" lon="5.72953">
        <ele>56</ele>
        <time>2026-09-04T11:31:18+00:00</time>
      </trkpt>
      <trkpt lat="50.81789" lon="5.72997">
        <ele>57</ele>
        <time>2026-09-04T11:31:21+00:00</time>
      </trkpt>
      <trkpt lat="50.81796" lon="5.73042">
        <ele>57</ele>
        <time>2026-09-04T11:31:24+00:00</time>
      </trkpt>
      <trkpt lat="50.81797" lon="5.73056">
        <ele>58</ele>
        <time>2026-09-04T11:31:27+00:00</time>
      </trkpt>
      <trkpt lat="50.81793" lon="5.73087">
        <ele>58</ele>
        <time>2026-09-04T11:31:30+00:00</time>
      </trkpt>
      <trkpt lat="50.81787" lon="5.73125">
        <ele>58</ele>
        <time>2026-09-04T11:31:33+00:00</time>
      </trkpt>
      <trkpt lat="50.81783" lon="5.73144">
        <ele>58</ele>
        <time>2026-09-04T11:31:36+00:00</time>
      </trkpt>
      <trkpt lat="50.81773" lon="5.73174">
        <ele>58</ele>
        <time>2026-09-04T11:31:39+00:00</time>
      </trkpt>
      <trkpt lat="50.81757" lon="5.73223">
        <ele>58</ele>
        <time>2026-09-04T11:31:42+00:00</time>
      </trkpt>
      <trkpt lat="50.81744" lon="5.73255">
        <ele>58</ele>
        <time>2026-09-04T11:31:45+00:00</time>
      </trkpt>
      <trkpt lat="50.81728" lon="5.73297">
        <ele>58</ele>
        <time>2026-09-04T11:31:48+00:00</time>
      </trkpt>
      <trkpt lat="50.81714" lon="5.73337">
        <ele>58</ele>
        <time>2026-09-04T11:31:51+00:00</time>
      </trkpt>
      <trkpt lat="50.817" lon="5.73377">
        <ele>58</ele>
        <time>2026-09-04T11:31:54+00:00</time>
      </trkpt>
      <trkpt lat="50.81685" lon="5.7342">
        <ele>59</ele>
        <time>2026-09-04T11:31:57+00:00</time>
      </trkpt>
      <trkpt lat="50.81674" lon="5.73466">
        <ele>59</ele>
        <time>2026-09-04T11:32:00+00:00</time>
      </trkpt>
      <trkpt lat="50.81663" lon="5.73512">
        <ele>59</ele>
        <time>2026-09-04T11:32:03+00:00</time>
      </trkpt>
      <trkpt lat="50.81644" lon="5.73593">
        <ele>61</ele>
        <time>2026-09-04T11:32:06+00:00</time>
      </trkpt>
      <trkpt lat="50.81641" lon="5.73603">
        <ele>61</ele>
        <time>2026-09-04T11:32:09+00:00</time>
      </trkpt>
      <trkpt lat="50.81626" lon="5.73625">
        <ele>61</ele>
        <time>2026-09-04T11:32:12+00:00</time>
      </trkpt>
      <trkpt lat="50.81608" lon="5.73653">
        <ele>61</ele>
        <time>2026-09-04T11:32:15+00:00</time>
      </trkpt>
      <trkpt lat="50.81584" lon="5.73703">
        <ele>61</ele>
        <time>2026-09-04T11:32:18+00:00</time>
      </trkpt>
      <trkpt lat="50.81597" lon="5.7373">
        <ele>61</ele>
        <time>2026-09-04T11:32:21+00:00</time>
      </trkpt>
      <trkpt lat="50.81611" lon="5.73759">
        <ele>62</ele>
        <time>2026-09-04T11:32:24+00:00</time>
      </trkpt>
      <trkpt lat="50.81617" lon="5.73776">
        <ele>62</ele>
        <time>2026-09-04T11:32:27+00:00</time>
      </trkpt>
      <trkpt lat="50.81626" lon="5.738">
        <ele>64</ele>
        <time>2026-09-04T11:32:30+00:00</time>
      </trkpt>
      <trkpt lat="50.81638" lon="5.7383">
        <ele>66</ele>
        <time>2026-09-04T11:32:33+00:00</time>
      </trkpt>
      <trkpt lat="50.81653" lon="5.73862">
        <ele>68</ele>
        <time>2026-09-04T11:32:36+00:00</time>
      </trkpt>
      <trkpt lat="50.81673" lon="5.73907">
        <ele>71</ele>
        <time>2026-09-04T11:32:39+00:00</time>
      </trkpt>
      <trkpt lat="50.81698" lon="5.73945">
        <ele>73</ele>
        <time>2026-09-04T11:32:42+00:00</time>
      </trkpt>
      <trkpt lat="50.81716" lon="5.73958">
        <ele>74</ele>
        <time>2026-09-04T11:32:45+00:00</time>
      </trkpt>
      <trkpt lat="50.81742" lon="5.73986">
        <ele>75</ele>
        <time>2026-09-04T11:32:48+00:00</time>
      </trkpt>
      <trkpt lat="50.81757" lon="5.74004">
        <ele>77</ele>
        <time>2026-09-04T11:32:51+00:00</time>
      </trkpt>
      <trkpt lat="50.81768" lon="5.74021">
        <ele>78</ele>
        <time>2026-09-04T11:32:54+00:00</time>
      </trkpt>
      <trkpt lat="50.8178" lon="5.74048">
        <ele>78</ele>
        <time>2026-09-04T11:32:57+00:00</time>
      </trkpt>
      <trkpt lat="50.81794" lon="5.74083">
        <ele>79</ele>
        <time>2026-09-04T11:33:00+00:00</time>
      </trkpt>
      <trkpt lat="50.81816" lon="5.7414">
        <ele>81</ele>
        <time>2026-09-04T11:33:03+00:00</time>
      </trkpt>
      <trkpt lat="50.8184" lon="5.74183">
        <ele>82</ele>
        <time>2026-09-04T11:33:06+00:00</time>
      </trkpt>
      <trkpt lat="50.81849" lon="5.74207">
        <ele>84</ele>
        <time>2026-09-04T11:33:09+00:00</time>
      </trkpt>
      <trkpt lat="50.81862" lon="5.74251">
        <ele>86</ele>
        <time>2026-09-04T11:33:12+00:00</time>
      </trkpt>
      <trkpt lat="50.81866" lon="5.74276">
        <ele>88</ele>
        <time>2026-09-04T11:33:15+00:00</time>
      </trkpt>
      <trkpt lat="50.81867" lon="5.74303">
        <ele>91</ele>
        <time>2026-09-04T11:33:18+00:00</time>
      </trkpt>
      <trkpt lat="50.81863" lon="5.74344">
        <ele>95</ele>
        <time>2026-09-04T11:33:21+00:00</time>
      </trkpt>
      <trkpt lat="50.81858" lon="5.74408">
        <ele>115</ele>
        <time>2026-09-04T11:33:24+00:00</time>
      </trkpt>
      <trkpt lat="50.81856" lon="5.74415">
        <ele>118</ele>
        <time>2026-09-04T11:33:27+00:00</time>
      </trkpt>
      <trkpt lat="50.81851" lon="5.74421">
        <ele>120</ele>
        <time>2026-09-04T11:33:30+00:00</time>
      </trkpt>
      <trkpt lat="50.81828" lon="5.74429">
        <ele>120</ele>
        <time>2026-09-04T11:33:33+00:00</time>
      </trkpt>
      <trkpt lat="50.8183" lon="5.74434">
        <ele>122</ele>
        <time>2026-09-04T11:33:36+00:00</time>
      </trkpt>
      <trkpt lat="50.81859" lon="5.74453">
        <ele>126</ele>
        <time>2026-09-04T11:33:39+00:00</time>
      </trkpt>
      <trkpt lat="50.81882" lon="5.74484">
        <ele>128</ele>
        <time>2026-09-04T11:33:42+00:00</time>
      </trkpt>
      <trkpt lat="50.81903" lon="5.74503">
        <ele>132</ele>
        <time>2026-09-04T11:33:45+00:00</time>
      </trkpt>
      <trkpt lat="50.81912" lon="5.74515">
        <ele>132</ele>
        <time>2026-09-04T11:33:48+00:00</time>
      </trkpt>
      <trkpt lat="50.8192" lon="5.7453">
        <ele>133</ele>
        <time>2026-09-04T11:33:51+00:00</time>
      </trkpt>
      <trkpt lat="50.81923" lon="5.7454">
        <ele>133</ele>
        <time>2026-09-04T11:33:54+00:00</time>
      </trkpt>
      <trkpt lat="50.81935" lon="5.74589">
        <ele>133</ele>
        <time>2026-09-04T11:33:57+00:00</time>
      </trkpt>
      <trkpt lat="50.81945" lon="5.74625">
        <ele>131</ele>
        <time>2026-09-04T11:34:00+00:00</time>
      </trkpt>
      <trkpt lat="50.81963" lon="5.74644">
        <ele>128</ele>
        <time>2026-09-04T11:34:03+00:00</time>
      </trkpt>
      <trkpt lat="50.81964" lon="5.74641">
        <ele>128</ele>
        <time>2026-09-04T11:34:06+00:00</time>
      </trkpt>
      <trkpt lat="50.81969" lon="5.74646">
        <ele>128</ele>
        <time>2026-09-04T11:34:09+00:00</time>
      </trkpt>
      <trkpt lat="50.81992" lon="5.74647">
        <ele>127</ele>
        <time>2026-09-04T11:34:12+00:00</time>
      </trkpt>
      <trkpt lat="50.82028" lon="5.74649">
        <ele>124</ele>
        <time>2026-09-04T11:34:15+00:00</time>
      </trkpt>
      <trkpt lat="50.8205" lon="5.74654">
        <ele>124</ele>
        <time>2026-09-04T11:34:18+00:00</time>
      </trkpt>
      <trkpt lat="50.82062" lon="5.7466">
        <ele>124</ele>
        <time>2026-09-04T11:34:21+00:00</time>
      </trkpt>
      <trkpt lat="50.8208" lon="5.74671">
        <ele>124</ele>
        <time>2026-09-04T11:34:24+00:00</time>
      </trkpt>
      <trkpt lat="50.82105" lon="5.74687">
        <ele>121</ele>
        <time>2026-09-04T11:34:27+00:00</time>
      </trkpt>
      <trkpt lat="50.82115" lon="5.74682">
        <ele>124</ele>
        <time>2026-09-04T11:34:30+00:00</time>
      </trkpt>
      <trkpt lat="50.82116" lon="5.74676">
        <ele>122</ele>
        <time>2026-09-04T11:34:33+00:00</time>
      </trkpt>
      <trkpt lat="50.82117" lon="5.74658">
        <ele>119</ele>
        <time>2026-09-04T11:34:36+00:00</time>
      </trkpt>
      <trkpt lat="50.82116" lon="5.74631">
        <ele>116</ele>
        <time>2026-09-04T11:34:39+00:00</time>
      </trkpt>
      <trkpt lat="50.82128" lon="5.74612">
        <ele>113</ele>
        <time>2026-09-04T11:34:42+00:00</time>
      </trkpt>
      <trkpt lat="50.82135" lon="5.74608">
        <ele>112</ele>
        <time>2026-09-04T11:34:45+00:00</time>
      </trkpt>
      <trkpt lat="50.82143" lon="5.74597">
        <ele>111</ele>
        <time>2026-09-04T11:34:48+00:00</time>
      </trkpt>
      <trkpt lat="50.8215" lon="5.74591">
        <ele>112</ele>
        <time>2026-09-04T11:34:51+00:00</time>
      </trkpt>
      <trkpt lat="50.8216" lon="5.74593">
        <ele>112</ele>
        <time>2026-09-04T11:34:54+00:00</time>
      </trkpt>
      <trkpt lat="50.82174" lon="5.74589">
        <ele>112</ele>
        <time>2026-09-04T11:34:57+00:00</time>
      </trkpt>
      <trkpt lat="50.8218" lon="5.74589">
        <ele>112</ele>
        <time>2026-09-04T11:35:00+00:00</time>
      </trkpt>
      <trkpt lat="50.82202" lon="5.74604">
        <ele>115</ele>
        <time>2026-09-04T11:35:03+00:00</time>
      </trkpt>
      <trkpt lat="50.82237" lon="5.74628">
        <ele>113</ele>
        <time>2026-09-04T11:35:06+00:00</time>
      </trkpt>
      <trkpt lat="50.82239" lon="5.74627">
        <ele>119</ele>
        <time>2026-09-04T11:35:09+00:00</time>
      </trkpt>
      <trkpt lat="50.8224" lon="5.74617">
        <ele>115</ele>
        <time>2026-09-04T11:35:12+00:00</time>
      </trkpt>
      <trkpt lat="50.82244" lon="5.74601">
        <ele>112</ele>
        <time>2026-09-04T11:35:15+00:00</time>
      </trkpt>
      <trkpt lat="50.82244" lon="5.74597">
        <ele>108</ele>
        <time>2026-09-04T11:35:18+00:00</time>
      </trkpt>
      <trkpt lat="50.82248" lon="5.7459">
        <ele>108</ele>
        <time>2026-09-04T11:35:21+00:00</time>
      </trkpt>
      <trkpt lat="50.82254" lon="5.74588">
        <ele>105</ele>
        <time>2026-09-04T11:35:24+00:00</time>
      </trkpt>
      <trkpt lat="50.82268" lon="5.74592">
        <ele>112</ele>
        <time>2026-09-04T11:35:27+00:00</time>
      </trkpt>
      <trkpt lat="50.82287" lon="5.74608">
        <ele>112</ele>
        <time>2026-09-04T11:35:30+00:00</time>
      </trkpt>
      <trkpt lat="50.82311" lon="5.74615">
        <ele>120</ele>
        <time>2026-09-04T11:35:33+00:00</time>
      </trkpt>
      <trkpt lat="50.82334" lon="5.74628">
        <ele>122</ele>
        <time>2026-09-04T11:35:36+00:00</time>
      </trkpt>
      <trkpt lat="50.82357" lon="5.74636">
        <ele>122</ele>
        <time>2026-09-04T11:35:39+00:00</time>
      </trkpt>
      <trkpt lat="50.82378" lon="5.74631">
        <ele>122</ele>
        <time>2026-09-04T11:35:42+00:00</time>
      </trkpt>
      <trkpt lat="50.82394" lon="5.74631">
        <ele>122</ele>
        <time>2026-09-04T11:35:45+00:00</time>
      </trkpt>
      <trkpt lat="50.82408" lon="5.74616">
        <ele>111</ele>
        <time>2026-09-04T11:35:48+00:00</time>
      </trkpt>
      <trkpt lat="50.82426" lon="5.74598">
        <ele>112</ele>
        <time>2026-09-04T11:35:51+00:00</time>
      </trkpt>
      <trkpt lat="50.8244" lon="5.74591">
        <ele>111</ele>
        <time>2026-09-04T11:35:54+00:00</time>
      </trkpt>
      <trkpt lat="50.82465" lon="5.74597">
        <ele>114</ele>
        <time>2026-09-04T11:35:57+00:00</time>
      </trkpt>
      <trkpt lat="50.82494" lon="5.74618">
        <ele>115</ele>
        <time>2026-09-04T11:36:00+00:00</time>
      </trkpt>
      <trkpt lat="50.82503" lon="5.74628">
        <ele>116</ele>
        <time>2026-09-04T11:36:03+00:00</time>
      </trkpt>
      <trkpt lat="50.82514" lon="5.74651">
        <ele>118</ele>
        <time>2026-09-04T11:36:06+00:00</time>
      </trkpt>
      <trkpt lat="50.82526" lon="5.74677">
        <ele>119</ele>
        <time>2026-09-04T11:36:09+00:00</time>
      </trkpt>
      <trkpt lat="50.82558" lon="5.74714">
        <ele>120</ele>
        <time>2026-09-04T11:36:12+00:00</time>
      </trkpt>
      <trkpt lat="50.82573" lon="5.74738">
        <ele>121</ele>
        <time>2026-09-04T11:36:15+00:00</time>
      </trkpt>
      <trkpt lat="50.82588" lon="5.74762">
        <ele>121</ele>
        <time>2026-09-04T11:36:18+00:00</time>
      </trkpt>
      <trkpt lat="50.82598" lon="5.74781">
        <ele>121</ele>
        <time>2026-09-04T11:36:21+00:00</time>
      </trkpt>
      <trkpt lat="50.82604" lon="5.74803">
        <ele>120</ele>
        <time>2026-09-04T11:36:24+00:00</time>
      </trkpt>
      <trkpt lat="50.82611" lon="5.7486">
        <ele>120</ele>
        <time>2026-09-04T11:36:27+00:00</time>
      </trkpt>
      <trkpt lat="50.82605" lon="5.74855">
        <ele>120</ele>
        <time>2026-09-04T11:36:30+00:00</time>
      </trkpt>
      <trkpt lat="50.82589" lon="5.74829">
        <ele>120</ele>
        <time>2026-09-04T11:36:33+00:00</time>
      </trkpt>
      <trkpt lat="50.82575" lon="5.74801">
        <ele>120</ele>
        <time>2026-09-04T11:36:36+00:00</time>
      </trkpt>
      <trkpt lat="50.8256" lon="5.74771">
        <ele>120</ele>
        <time>2026-09-04T11:36:39+00:00</time>
      </trkpt>
      <trkpt lat="50.82548" lon="5.74753">
        <ele>119</ele>
        <time>2026-09-04T11:36:42+00:00</time>
      </trkpt>
      <trkpt lat="50.82539" lon="5.74747">
        <ele>120</ele>
        <time>2026-09-04T11:36:45+00:00</time>
      </trkpt>
      <trkpt lat="50.8252" lon="5.74738">
        <ele>120</ele>
        <time>2026-09-04T11:36:48+00:00</time>
      </trkpt>
      <trkpt lat="50.82486" lon="5.74718">
        <ele>123</ele>
        <time>2026-09-04T11:36:51+00:00</time>
      </trkpt>
      <trkpt lat="50.8247" lon="5.74702">
        <ele>125</ele>
        <time>2026-09-04T11:36:54+00:00</time>
      </trkpt>
      <trkpt lat="50.82461" lon="5.74703">
        <ele>126</ele>
        <time>2026-09-04T11:36:57+00:00</time>
      </trkpt>
      <trkpt lat="50.82456" lon="5.74708">
        <ele>127</ele>
        <time>2026-09-04T11:37:00+00:00</time>
      </trkpt>
      <trkpt lat="50.82455" lon="5.74711">
        <ele>125</ele>
        <time>2026-09-04T11:37:03+00:00</time>
      </trkpt>
      <trkpt lat="50.82455" lon="5.74746">
        <ele>122</ele>
        <time>2026-09-04T11:37:06+00:00</time>
      </trkpt>
      <trkpt lat="50.82455" lon="5.74783">
        <ele>121</ele>
        <time>2026-09-04T11:37:09+00:00</time>
      </trkpt>
      <trkpt lat="50.82488" lon="5.7479">
        <ele>120</ele>
        <time>2026-09-04T11:37:12+00:00</time>
      </trkpt>
      <trkpt lat="50.82492" lon="5.74798">
        <ele>118</ele>
        <time>2026-09-04T11:37:15+00:00</time>
      </trkpt>
      <trkpt lat="50.8249" lon="5.74844">
        <ele>120</ele>
        <time>2026-09-04T11:37:18+00:00</time>
      </trkpt>
      <trkpt lat="50.82491" lon="5.74892">
        <ele>120</ele>
        <time>2026-09-04T11:37:21+00:00</time>
      </trkpt>
      <trkpt lat="50.82492" lon="5.74941">
        <ele>121</ele>
        <time>2026-09-04T11:37:24+00:00</time>
      </trkpt>
      <trkpt lat="50.82494" lon="5.75017">
        <ele>122</ele>
        <time>2026-09-04T11:37:27+00:00</time>
      </trkpt>
      <trkpt lat="50.82496" lon="5.75025">
        <ele>122</ele>
        <time>2026-09-04T11:37:30+00:00</time>
      </trkpt>
      <trkpt lat="50.82498" lon="5.75072">
        <ele>124</ele>
        <time>2026-09-04T11:37:33+00:00</time>
      </trkpt>
      <trkpt lat="50.825" lon="5.7512">
        <ele>124</ele>
        <time>2026-09-04T11:37:36+00:00</time>
      </trkpt>
      <trkpt lat="50.82503" lon="5.75205">
        <ele>124</ele>
        <time>2026-09-04T11:37:39+00:00</time>
      </trkpt>
      <trkpt lat="50.82504" lon="5.7526">
        <ele>125</ele>
        <time>2026-09-04T11:37:42+00:00</time>
      </trkpt>
      <trkpt lat="50.82506" lon="5.75315">
        <ele>126</ele>
        <time>2026-09-04T11:37:45+00:00</time>
      </trkpt>
      <trkpt lat="50.82507" lon="5.7537">
        <ele>126</ele>
        <time>2026-09-04T11:37:48+00:00</time>
      </trkpt>
      <trkpt lat="50.82509" lon="5.75425">
        <ele>127</ele>
        <time>2026-09-04T11:37:51+00:00</time>
      </trkpt>
      <trkpt lat="50.82511" lon="5.75505">
        <ele>128</ele>
        <time>2026-09-04T11:37:54+00:00</time>
      </trkpt>
      <trkpt lat="50.82513" lon="5.75537">
        <ele>127</ele>
        <time>2026-09-04T11:37:57+00:00</time>
      </trkpt>
      <trkpt lat="50.82508" lon="5.75531">
        <ele>128</ele>
        <time>2026-09-04T11:38:00+00:00</time>
      </trkpt>
      <trkpt lat="50.8251" lon="5.7553">
        <ele>128</ele>
        <time>2026-09-04T11:38:03+00:00</time>
      </trkpt>
      <trkpt lat="50.825" lon="5.75504">
        <ele>127</ele>
        <time>2026-09-04T11:38:06+00:00</time>
      </trkpt>
      <trkpt lat="50.82485" lon="5.7547">
        <ele>127</ele>
        <time>2026-09-04T11:38:09+00:00</time>
      </trkpt>
      <trkpt lat="50.8246" lon="5.75413">
        <ele>127</ele>
        <time>2026-09-04T11:38:12+00:00</time>
      </trkpt>
      <trkpt lat="50.82446" lon="5.75377">
        <ele>126</ele>
        <time>2026-09-04T11:38:15+00:00</time>
      </trkpt>
      <trkpt lat="50.82423" lon="5.75317">
        <ele>126</ele>
        <time>2026-09-04T11:38:18+00:00</time>
      </trkpt>
      <trkpt lat="50.82407" lon="5.75289">
        <ele>126</ele>
        <time>2026-09-04T11:38:21+00:00</time>
      </trkpt>
      <trkpt lat="50.82381" lon="5.75252">
        <ele>126</ele>
        <time>2026-09-04T11:38:24+00:00</time>
      </trkpt>
      <trkpt lat="50.82361" lon="5.7523">
        <ele>126</ele>
        <time>2026-09-04T11:38:27+00:00</time>
      </trkpt>
      <trkpt lat="50.82339" lon="5.7521">
        <ele>125</ele>
        <time>2026-09-04T11:38:30+00:00</time>
      </trkpt>
      <trkpt lat="50.82307" lon="5.75181">
        <ele>125</ele>
        <time>2026-09-04T11:38:33+00:00</time>
      </trkpt>
      <trkpt lat="50.82281" lon="5.75159">
        <ele>125</ele>
        <time>2026-09-04T11:38:36+00:00</time>
      </trkpt>
      <trkpt lat="50.82254" lon="5.75138">
        <ele>125</ele>
        <time>2026-09-04T11:38:39+00:00</time>
      </trkpt>
      <trkpt lat="50.82221" lon="5.7511">
        <ele>124</ele>
        <time>2026-09-04T11:38:42+00:00</time>
      </trkpt>
      <trkpt lat="50.82203" lon="5.75093">
        <ele>124</ele>
        <time>2026-09-04T11:38:45+00:00</time>
      </trkpt>
      <trkpt lat="50.82186" lon="5.75073">
        <ele>124</ele>
        <time>2026-09-04T11:38:48+00:00</time>
      </trkpt>
      <trkpt lat="50.82169" lon="5.75052">
        <ele>124</ele>
        <time>2026-09-04T11:38:51+00:00</time>
      </trkpt>
      <trkpt lat="50.82151" lon="5.75025">
        <ele>123</ele>
        <time>2026-09-04T11:38:54+00:00</time>
      </trkpt>
      <trkpt lat="50.82128" lon="5.74989">
        <ele>123</ele>
        <time>2026-09-04T11:38:57+00:00</time>
      </trkpt>
      <trkpt lat="50.82107" lon="5.74952">
        <ele>122</ele>
        <time>2026-09-04T11:39:00+00:00</time>
      </trkpt>
      <trkpt lat="50.82089" lon="5.74916">
        <ele>121</ele>
        <time>2026-09-04T11:39:03+00:00</time>
      </trkpt>
      <trkpt lat="50.82071" lon="5.7488">
        <ele>120</ele>
        <time>2026-09-04T11:39:06+00:00</time>
      </trkpt>
      <trkpt lat="50.82051" lon="5.7484">
        <ele>120</ele>
        <time>2026-09-04T11:39:09+00:00</time>
      </trkpt>
      <trkpt lat="50.82032" lon="5.74808">
        <ele>120</ele>
        <time>2026-09-04T11:39:12+00:00</time>
      </trkpt>
      <trkpt lat="50.81996" lon="5.74748">
        <ele>118</ele>
        <time>2026-09-04T11:39:15+00:00</time>
      </trkpt>
      <trkpt lat="50.81982" lon="5.74719">
        <ele>118</ele>
        <time>2026-09-04T11:39:18+00:00</time>
      </trkpt>
      <trkpt lat="50.81964" lon="5.74684">
        <ele>124</ele>
        <time>2026-09-04T11:39:21+00:00</time>
      </trkpt>
      <trkpt lat="50.81945" lon="5.74685">
        <ele>122</ele>
        <time>2026-09-04T11:39:24+00:00</time>
      </trkpt>
      <trkpt lat="50.8192" lon="5.74682">
        <ele>120</ele>
        <time>2026-09-04T11:39:27+00:00</time>
      </trkpt>
      <trkpt lat="50.81882" lon="5.74686">
        <ele>117</ele>
        <time>2026-09-04T11:39:30+00:00</time>
      </trkpt>
      <trkpt lat="50.81873" lon="5.74721">
        <ele>117</ele>
        <time>2026-09-04T11:39:33+00:00</time>
      </trkpt>
      <trkpt lat="50.81864" lon="5.74766">
        <ele>117</ele>
        <time>2026-09-04T11:39:36+00:00</time>
      </trkpt>
      <trkpt lat="50.81855" lon="5.74812">
        <ele>118</ele>
        <time>2026-09-04T11:39:39+00:00</time>
      </trkpt>
      <trkpt lat="50.81843" lon="5.74875">
        <ele>121</ele>
        <time>2026-09-04T11:39:42+00:00</time>
      </trkpt>
      <trkpt lat="50.81867" lon="5.74906">
        <ele>120</ele>
        <time>2026-09-04T11:39:45+00:00</time>
      </trkpt>
      <trkpt lat="50.81891" lon="5.74937">
        <ele>121</ele>
        <time>2026-09-04T11:39:48+00:00</time>
      </trkpt>
      <trkpt lat="50.81932" lon="5.7499">
        <ele>122</ele>
        <time>2026-09-04T11:39:51+00:00</time>
      </trkpt>
      <trkpt lat="50.81937" lon="5.75001">
        <ele>123</ele>
        <time>2026-09-04T11:39:54+00:00</time>
      </trkpt>
      <trkpt lat="50.81955" lon="5.75025">
        <ele>123</ele>
        <time>2026-09-04T11:39:57+00:00</time>
      </trkpt>
      <trkpt lat="50.81987" lon="5.75066">
        <ele>125</ele>
        <time>2026-09-04T11:40:00+00:00</time>
      </trkpt>
      <trkpt lat="50.82006" lon="5.7511">
        <ele>126</ele>
        <time>2026-09-04T11:40:03+00:00</time>
      </trkpt>
      <trkpt lat="50.82025" lon="5.75154">
        <ele>126</ele>
        <time>2026-09-04T11:40:06+00:00</time>
      </trkpt>
      <trkpt lat="50.82045" lon="5.75198">
        <ele>126</ele>
        <time>2026-09-04T11:40:09+00:00</time>
      </trkpt>
      <trkpt lat="50.8208" lon="5.75278">
        <ele>124</ele>
        <time>2026-09-04T11:40:12+00:00</time>
      </trkpt>
      <trkpt lat="50.82101" lon="5.75316">
        <ele>123</ele>
        <time>2026-09-04T11:40:15+00:00</time>
      </trkpt>
      <trkpt lat="50.82122" lon="5.75355">
        <ele>123</ele>
        <time>2026-09-04T11:40:18+00:00</time>
      </trkpt>
      <trkpt lat="50.82143" lon="5.75393">
        <ele>123</ele>
        <time>2026-09-04T11:40:21+00:00</time>
      </trkpt>
      <trkpt lat="50.82165" lon="5.75434">
        <ele>121</ele>
        <time>2026-09-04T11:40:24+00:00</time>
      </trkpt>
      <trkpt lat="50.82187" lon="5.75476">
        <ele>121</ele>
        <time>2026-09-04T11:40:27+00:00</time>
      </trkpt>
      <trkpt lat="50.82209" lon="5.75519">
        <ele>121</ele>
        <time>2026-09-04T11:40:30+00:00</time>
      </trkpt>
      <trkpt lat="50.82231" lon="5.75562">
        <ele>122</ele>
        <time>2026-09-04T11:40:33+00:00</time>
      </trkpt>
      <trkpt lat="50.82253" lon="5.75604">
        <ele>125</ele>
        <time>2026-09-04T11:40:36+00:00</time>
      </trkpt>
      <trkpt lat="50.82286" lon="5.75667">
        <ele>126</ele>
        <time>2026-09-04T11:40:39+00:00</time>
      </trkpt>
      <trkpt lat="50.82287" lon="5.75675">
        <ele>127</ele>
        <time>2026-09-04T11:40:42+00:00</time>
      </trkpt>
      <trkpt lat="50.82287" lon="5.75684">
        <ele>128</ele>
        <time>2026-09-04T11:40:45+00:00</time>
      </trkpt>
      <trkpt lat="50.82275" lon="5.75714">
        <ele>125</ele>
        <time>2026-09-04T11:40:48+00:00</time>
      </trkpt>
      <trkpt lat="50.82272" lon="5.75725">
        <ele>127</ele>
        <time>2026-09-04T11:40:51+00:00</time>
      </trkpt>
      <trkpt lat="50.8225" lon="5.75725">
        <ele>124</ele>
        <time>2026-09-04T11:40:54+00:00</time>
      </trkpt>
      <trkpt lat="50.8222" lon="5.75726">
        <ele>118</ele>
        <time>2026-09-04T11:40:57+00:00</time>
      </trkpt>
      <trkpt lat="50.82209" lon="5.75727">
        <ele>112</ele>
        <time>2026-09-04T11:41:00+00:00</time>
      </trkpt>
      <trkpt lat="50.82202" lon="5.7573">
        <ele>111</ele>
        <time>2026-09-04T11:41:03+00:00</time>
      </trkpt>
      <trkpt lat="50.82199" lon="5.75737">
        <ele>109</ele>
        <time>2026-09-04T11:41:06+00:00</time>
      </trkpt>
      <trkpt lat="50.82193" lon="5.75741">
        <ele>108</ele>
        <time>2026-09-04T11:41:09+00:00</time>
      </trkpt>
      <trkpt lat="50.82189" lon="5.75746">
        <ele>105</ele>
        <time>2026-09-04T11:41:12+00:00</time>
      </trkpt>
      <trkpt lat="50.8218" lon="5.75741">
        <ele>102</ele>
        <time>2026-09-04T11:41:15+00:00</time>
      </trkpt>
      <trkpt lat="50.82173" lon="5.75734">
        <ele>103</ele>
        <time>2026-09-04T11:41:18+00:00</time>
      </trkpt>
      <trkpt lat="50.82158" lon="5.75772">
        <ele>86</ele>
        <time>2026-09-04T11:41:21+00:00</time>
      </trkpt>
      <trkpt lat="50.82139" lon="5.75801">
        <ele>85</ele>
        <time>2026-09-04T11:41:24+00:00</time>
      </trkpt>
      <trkpt lat="50.82108" lon="5.75847">
        <ele>85</ele>
        <time>2026-09-04T11:41:27+00:00</time>
      </trkpt>
      <trkpt lat="50.82094" lon="5.75863">
        <ele>84</ele>
        <time>2026-09-04T11:41:30+00:00</time>
      </trkpt>
      <trkpt lat="50.82117" lon="5.75889">
        <ele>84</ele>
        <time>2026-09-04T11:41:33+00:00</time>
      </trkpt>
      <trkpt lat="50.82151" lon="5.75909">
        <ele>84</ele>
        <time>2026-09-04T11:41:36+00:00</time>
      </trkpt>
      <trkpt lat="50.82161" lon="5.75919">
        <ele>84</ele>
        <time>2026-09-04T11:41:39+00:00</time>
      </trkpt>
      <trkpt lat="50.82171" lon="5.7594">
        <ele>84</ele>
        <time>2026-09-04T11:41:42+00:00</time>
      </trkpt>
      <trkpt lat="50.82181" lon="5.75976">
        <ele>85</ele>
        <time>2026-09-04T11:41:45+00:00</time>
      </trkpt>
      <trkpt lat="50.82189" lon="5.75997">
        <ele>86</ele>
        <time>2026-09-04T11:41:48+00:00</time>
      </trkpt>
      <trkpt lat="50.82196" lon="5.76005">
        <ele>85</ele>
        <time>2026-09-04T11:41:51+00:00</time>
      </trkpt>
      <trkpt lat="50.82225" lon="5.76028">
        <ele>85</ele>
        <time>2026-09-04T11:41:54+00:00</time>
      </trkpt>
      <trkpt lat="50.82244" lon="5.76057">
        <ele>85</ele>
        <time>2026-09-04T11:41:57+00:00</time>
      </trkpt>
      <trkpt lat="50.82253" lon="5.76079">
        <ele>85</ele>
        <time>2026-09-04T11:42:00+00:00</time>
      </trkpt>
      <trkpt lat="50.82258" lon="5.76098">
        <ele>85</ele>
        <time>2026-09-04T11:42:03+00:00</time>
      </trkpt>
      <trkpt lat="50.82263" lon="5.76118">
        <ele>85</ele>
        <time>2026-09-04T11:42:06+00:00</time>
      </trkpt>
      <trkpt lat="50.82267" lon="5.76152">
        <ele>86</ele>
        <time>2026-09-04T11:42:09+00:00</time>
      </trkpt>
      <trkpt lat="50.82267" lon="5.76207">
        <ele>87</ele>
        <time>2026-09-04T11:42:12+00:00</time>
      </trkpt>
      <trkpt lat="50.82264" lon="5.76248">
        <ele>88</ele>
        <time>2026-09-04T11:42:15+00:00</time>
      </trkpt>
      <trkpt lat="50.82299" lon="5.76264">
        <ele>88</ele>
        <time>2026-09-04T11:42:18+00:00</time>
      </trkpt>
      <trkpt lat="50.82321" lon="5.76269">
        <ele>94</ele>
        <time>2026-09-04T11:42:21+00:00</time>
      </trkpt>
      <trkpt lat="50.82335" lon="5.7627">
        <ele>96</ele>
        <time>2026-09-04T11:42:24+00:00</time>
      </trkpt>
      <trkpt lat="50.82349" lon="5.76274">
        <ele>98</ele>
        <time>2026-09-04T11:42:27+00:00</time>
      </trkpt>
      <trkpt lat="50.82351" lon="5.76297">
        <ele>101</ele>
        <time>2026-09-04T11:42:30+00:00</time>
      </trkpt>
      <trkpt lat="50.82347" lon="5.76323">
        <ele>98</ele>
        <time>2026-09-04T11:42:33+00:00</time>
      </trkpt>
      <trkpt lat="50.82348" lon="5.76333">
        <ele>99</ele>
        <time>2026-09-04T11:42:36+00:00</time>
      </trkpt>
      <trkpt lat="50.82343" lon="5.76341">
        <ele>100</ele>
        <time>2026-09-04T11:42:39+00:00</time>
      </trkpt>
      <trkpt lat="50.82336" lon="5.76364">
        <ele>100</ele>
        <time>2026-09-04T11:42:42+00:00</time>
      </trkpt>
      <trkpt lat="50.82344" lon="5.76372">
        <ele>101</ele>
        <time>2026-09-04T11:42:45+00:00</time>
      </trkpt>
      <trkpt lat="50.8235" lon="5.76389">
        <ele>102</ele>
        <time>2026-09-04T11:42:48+00:00</time>
      </trkpt>
      <trkpt lat="50.82363" lon="5.76369">
        <ele>106</ele>
        <time>2026-09-04T11:42:51+00:00</time>
      </trkpt>
      <trkpt lat="50.82368" lon="5.76367">
        <ele>106</ele>
        <time>2026-09-04T11:42:54+00:00</time>
      </trkpt>
      <trkpt lat="50.82377" lon="5.76371">
        <ele>108</ele>
        <time>2026-09-04T11:42:57+00:00</time>
      </trkpt>
      <trkpt lat="50.82388" lon="5.76372">
        <ele>110</ele>
        <time>2026-09-04T11:43:00+00:00</time>
      </trkpt>
      <trkpt lat="50.82391" lon="5.76381">
        <ele>112</ele>
        <time>2026-09-04T11:43:03+00:00</time>
      </trkpt>
      <trkpt lat="50.8239" lon="5.76396">
        <ele>110</ele>
        <time>2026-09-04T11:43:06+00:00</time>
      </trkpt>
      <trkpt lat="50.82382" lon="5.76426">
        <ele>109</ele>
        <time>2026-09-04T11:43:09+00:00</time>
      </trkpt>
      <trkpt lat="50.8238" lon="5.76432">
        <ele>112</ele>
        <time>2026-09-04T11:43:12+00:00</time>
      </trkpt>
      <trkpt lat="50.82383" lon="5.7644">
        <ele>112</ele>
        <time>2026-09-04T11:43:15+00:00</time>
      </trkpt>
      <trkpt lat="50.82385" lon="5.76443">
        <ele>112</ele>
        <time>2026-09-04T11:43:18+00:00</time>
      </trkpt>
      <trkpt lat="50.82362" lon="5.76467">
        <ele>109</ele>
        <time>2026-09-04T11:43:21+00:00</time>
      </trkpt>
      <trkpt lat="50.82354" lon="5.76502">
        <ele>109</ele>
        <time>2026-09-04T11:43:24+00:00</time>
      </trkpt>
      <trkpt lat="50.82344" lon="5.76545">
        <ele>110</ele>
        <time>2026-09-04T11:43:27+00:00</time>
      </trkpt>
      <trkpt lat="50.82338" lon="5.76602">
        <ele>112</ele>
        <time>2026-09-04T11:43:30+00:00</time>
      </trkpt>
      <trkpt lat="50.82335" lon="5.76654">
        <ele>111</ele>
        <time>2026-09-04T11:43:33+00:00</time>
      </trkpt>
      <trkpt lat="50.82324" lon="5.76666">
        <ele>114</ele>
        <time>2026-09-04T11:43:36+00:00</time>
      </trkpt>
      <trkpt lat="50.82303" lon="5.76665">
        <ele>110</ele>
        <time>2026-09-04T11:43:39+00:00</time>
      </trkpt>
      <trkpt lat="50.82272" lon="5.76664">
        <ele>105</ele>
        <time>2026-09-04T11:43:42+00:00</time>
      </trkpt>
      <trkpt lat="50.8225" lon="5.76667">
        <ele>99</ele>
        <time>2026-09-04T11:43:45+00:00</time>
      </trkpt>
      <trkpt lat="50.82226" lon="5.76674">
        <ele>98</ele>
        <time>2026-09-04T11:43:48+00:00</time>
      </trkpt>
      <trkpt lat="50.82223" lon="5.76701">
        <ele>98</ele>
        <time>2026-09-04T11:43:51+00:00</time>
      </trkpt>
      <trkpt lat="50.82218" lon="5.76728">
        <ele>99</ele>
        <time>2026-09-04T11:43:54+00:00</time>
      </trkpt>
      <trkpt lat="50.82205" lon="5.76781">
        <ele>99</ele>
        <time>2026-09-04T11:43:57+00:00</time>
      </trkpt>
      <trkpt lat="50.82192" lon="5.76771">
        <ele>97</ele>
        <time>2026-09-04T11:44:00+00:00</time>
      </trkpt>
      <trkpt lat="50.82186" lon="5.76793">
        <ele>95</ele>
        <time>2026-09-04T11:44:03+00:00</time>
      </trkpt>
      <trkpt lat="50.8218" lon="5.76818">
        <ele>95</ele>
        <time>2026-09-04T11:44:06+00:00</time>
      </trkpt>
      <trkpt lat="50.82172" lon="5.76857">
        <ele>95</ele>
        <time>2026-09-04T11:44:09+00:00</time>
      </trkpt>
      <trkpt lat="50.82171" lon="5.76874">
        <ele>95</ele>
        <time>2026-09-04T11:44:12+00:00</time>
      </trkpt>
      <trkpt lat="50.82174" lon="5.76905">
        <ele>95</ele>
        <time>2026-09-04T11:44:15+00:00</time>
      </trkpt>
      <trkpt lat="50.82172" lon="5.76915">
        <ele>96</ele>
        <time>2026-09-04T11:44:18+00:00</time>
      </trkpt>
      <trkpt lat="50.82168" lon="5.76919">
        <ele>95</ele>
        <time>2026-09-04T11:44:21+00:00</time>
      </trkpt>
      <trkpt lat="50.82164" lon="5.7692">
        <ele>94</ele>
        <time>2026-09-04T11:44:24+00:00</time>
      </trkpt>
      <trkpt lat="50.82144" lon="5.76906">
        <ele>95</ele>
        <time>2026-09-04T11:44:27+00:00</time>
      </trkpt>
      <trkpt lat="50.82134" lon="5.76906">
        <ele>94</ele>
        <time>2026-09-04T11:44:30+00:00</time>
      </trkpt>
      <trkpt lat="50.82129" lon="5.76909">
        <ele>93</ele>
        <time>2026-09-04T11:44:33+00:00</time>
      </trkpt>
      <trkpt lat="50.8211" lon="5.76928">
        <ele>95</ele>
        <time>2026-09-04T11:44:36+00:00</time>
      </trkpt>
      <trkpt lat="50.82102" lon="5.76942">
        <ele>98</ele>
        <time>2026-09-04T11:44:39+00:00</time>
      </trkpt>
      <trkpt lat="50.821" lon="5.76951">
        <ele>98</ele>
        <time>2026-09-04T11:44:42+00:00</time>
      </trkpt>
      <trkpt lat="50.82104" lon="5.77008">
        <ele>99</ele>
        <time>2026-09-04T11:44:45+00:00</time>
      </trkpt>
      <trkpt lat="50.82106" lon="5.77047">
        <ele>97</ele>
        <time>2026-09-04T11:44:48+00:00</time>
      </trkpt>
      <trkpt lat="50.82108" lon="5.77104">
        <ele>97</ele>
        <time>2026-09-04T11:44:51+00:00</time>
      </trkpt>
      <trkpt lat="50.82105" lon="5.77137">
        <ele>97</ele>
        <time>2026-09-04T11:44:54+00:00</time>
      </trkpt>
      <trkpt lat="50.82092" lon="5.77186">
        <ele>97</ele>
        <time>2026-09-04T11:44:57+00:00</time>
      </trkpt>
      <trkpt lat="50.82083" lon="5.77209">
        <ele>97</ele>
        <time>2026-09-04T11:45:00+00:00</time>
      </trkpt>
      <trkpt lat="50.8207" lon="5.77235">
        <ele>97</ele>
        <time>2026-09-04T11:45:03+00:00</time>
      </trkpt>
      <trkpt lat="50.82062" lon="5.77269">
        <ele>98</ele>
        <time>2026-09-04T11:45:06+00:00</time>
      </trkpt>
      <trkpt lat="50.82045" lon="5.77282">
        <ele>98</ele>
        <time>2026-09-04T11:45:09+00:00</time>
      </trkpt>
      <trkpt lat="50.8203" lon="5.77289">
        <ele>98</ele>
        <time>2026-09-04T11:45:12+00:00</time>
      </trkpt>
      <trkpt lat="50.82011" lon="5.77292">
        <ele>99</ele>
        <time>2026-09-04T11:45:15+00:00</time>
      </trkpt>
      <trkpt lat="50.81983" lon="5.77296">
        <ele>100</ele>
        <time>2026-09-04T11:45:18+00:00</time>
      </trkpt>
      <trkpt lat="50.81961" lon="5.77302">
        <ele>100</ele>
        <time>2026-09-04T11:45:21+00:00</time>
      </trkpt>
      <trkpt lat="50.81935" lon="5.77309">
        <ele>100</ele>
        <time>2026-09-04T11:45:24+00:00</time>
      </trkpt>
      <trkpt lat="50.81908" lon="5.7732">
        <ele>101</ele>
        <time>2026-09-04T11:45:27+00:00</time>
      </trkpt>
      <trkpt lat="50.81898" lon="5.77322">
        <ele>101</ele>
        <time>2026-09-04T11:45:30+00:00</time>
      </trkpt>
      <trkpt lat="50.81883" lon="5.77321">
        <ele>101</ele>
        <time>2026-09-04T11:45:33+00:00</time>
      </trkpt>
      <trkpt lat="50.81859" lon="5.77315">
        <ele>101</ele>
        <time>2026-09-04T11:45:36+00:00</time>
      </trkpt>
      <trkpt lat="50.81827" lon="5.77306">
        <ele>101</ele>
        <time>2026-09-04T11:45:39+00:00</time>
      </trkpt>
      <trkpt lat="50.81821" lon="5.77307">
        <ele>102</ele>
        <time>2026-09-04T11:45:42+00:00</time>
      </trkpt>
      <trkpt lat="50.81791" lon="5.77325">
        <ele>101</ele>
        <time>2026-09-04T11:45:45+00:00</time>
      </trkpt>
      <trkpt lat="50.81779" lon="5.77327">
        <ele>101</ele>
        <time>2026-09-04T11:45:48+00:00</time>
      </trkpt>
      <trkpt lat="50.81765" lon="5.77322">
        <ele>101</ele>
        <time>2026-09-04T11:45:51+00:00</time>
      </trkpt>
      <trkpt lat="50.81745" lon="5.77309">
        <ele>101</ele>
        <time>2026-09-04T11:45:54+00:00</time>
      </trkpt>
      <trkpt lat="50.81725" lon="5.77296">
        <ele>102</ele>
        <time>2026-09-04T11:45:57+00:00</time>
      </trkpt>
      <trkpt lat="50.81716" lon="5.77292">
        <ele>102</ele>
        <time>2026-09-04T11:46:00+00:00</time>
      </trkpt>
      <trkpt lat="50.8171" lon="5.77292">
        <ele>102</ele>
        <time>2026-09-04T11:46:03+00:00</time>
      </trkpt>
      <trkpt lat="50.81701" lon="5.773">
        <ele>103</ele>
        <time>2026-09-04T11:46:06+00:00</time>
      </trkpt>
      <trkpt lat="50.81685" lon="5.77327">
        <ele>103</ele>
        <time>2026-09-04T11:46:09+00:00</time>
      </trkpt>
      <trkpt lat="50.81665" lon="5.7736">
        <ele>103</ele>
        <time>2026-09-04T11:46:12+00:00</time>
      </trkpt>
      <trkpt lat="50.81632" lon="5.77402">
        <ele>103</ele>
        <time>2026-09-04T11:46:15+00:00</time>
      </trkpt>
      <trkpt lat="50.81623" lon="5.77405">
        <ele>103</ele>
        <time>2026-09-04T11:46:18+00:00</time>
      </trkpt>
      <trkpt lat="50.81615" lon="5.77395">
        <ele>103</ele>
        <time>2026-09-04T11:46:21+00:00</time>
      </trkpt>
      <trkpt lat="50.81616" lon="5.77387">
        <ele>103</ele>
        <time>2026-09-04T11:46:24+00:00</time>
      </trkpt>
      <trkpt lat="50.81606" lon="5.77342">
        <ele>104</ele>
        <time>2026-09-04T11:46:27+00:00</time>
      </trkpt>
      <trkpt lat="50.81595" lon="5.77298">
        <ele>106</ele>
        <time>2026-09-04T11:46:30+00:00</time>
      </trkpt>
      <trkpt lat="50.81577" lon="5.77217">
        <ele>110</ele>
        <time>2026-09-04T11:46:33+00:00</time>
      </trkpt>
      <trkpt lat="50.81569" lon="5.7718">
        <ele>112</ele>
        <time>2026-09-04T11:46:36+00:00</time>
      </trkpt>
      <trkpt lat="50.81558" lon="5.77129">
        <ele>116</ele>
        <time>2026-09-04T11:46:39+00:00</time>
      </trkpt>
      <trkpt lat="50.81547" lon="5.77084">
        <ele>116</ele>
        <time>2026-09-04T11:46:42+00:00</time>
      </trkpt>
      <trkpt lat="50.81515" lon="5.77084">
        <ele>116</ele>
        <time>2026-09-04T11:46:45+00:00</time>
      </trkpt>
      <trkpt lat="50.81483" lon="5.77084">
        <ele>115</ele>
        <time>2026-09-04T11:46:48+00:00</time>
      </trkpt>
      <trkpt lat="50.81421" lon="5.77085">
        <ele>112</ele>
        <time>2026-09-04T11:46:51+00:00</time>
      </trkpt>
      <trkpt lat="50.8141" lon="5.7705">
        <ele>112</ele>
        <time>2026-09-04T11:46:54+00:00</time>
      </trkpt>
      <trkpt lat="50.81398" lon="5.77006">
        <ele>115</ele>
        <time>2026-09-04T11:46:57+00:00</time>
      </trkpt>
      <trkpt lat="50.81386" lon="5.76961">
        <ele>117</ele>
        <time>2026-09-04T11:47:00+00:00</time>
      </trkpt>
      <trkpt lat="50.81368" lon="5.76893">
        <ele>119</ele>
        <time>2026-09-04T11:47:03+00:00</time>
      </trkpt>
      <trkpt lat="50.81361" lon="5.76861">
        <ele>122</ele>
        <time>2026-09-04T11:47:06+00:00</time>
      </trkpt>
      <trkpt lat="50.81354" lon="5.76827">
        <ele>122</ele>
        <time>2026-09-04T11:47:09+00:00</time>
      </trkpt>
      <trkpt lat="50.81348" lon="5.76792">
        <ele>123</ele>
        <time>2026-09-04T11:47:12+00:00</time>
      </trkpt>
      <trkpt lat="50.8134" lon="5.7675">
        <ele>124</ele>
        <time>2026-09-04T11:47:15+00:00</time>
      </trkpt>
      <trkpt lat="50.81338" lon="5.76716">
        <ele>125</ele>
        <time>2026-09-04T11:47:18+00:00</time>
      </trkpt>
      <trkpt lat="50.81336" lon="5.76681">
        <ele>127</ele>
        <time>2026-09-04T11:47:21+00:00</time>
      </trkpt>
      <trkpt lat="50.81334" lon="5.76655">
        <ele>128</ele>
        <time>2026-09-04T11:47:24+00:00</time>
      </trkpt>
      <trkpt lat="50.81333" lon="5.7665">
        <ele>127</ele>
        <time>2026-09-04T11:47:27+00:00</time>
      </trkpt>
      <trkpt lat="50.81327" lon="5.76646">
        <ele>128</ele>
        <time>2026-09-04T11:47:30+00:00</time>
      </trkpt>
      <trkpt lat="50.81297" lon="5.76635">
        <ele>127</ele>
        <time>2026-09-04T11:47:33+00:00</time>
      </trkpt>
      <trkpt lat="50.81271" lon="5.76615">
        <ele>127</ele>
        <time>2026-09-04T11:47:36+00:00</time>
      </trkpt>
      <trkpt lat="50.81247" lon="5.76585">
        <ele>127</ele>
        <time>2026-09-04T11:47:39+00:00</time>
      </trkpt>
      <trkpt lat="50.81226" lon="5.76555">
        <ele>127</ele>
        <time>2026-09-04T11:47:42+00:00</time>
      </trkpt>
      <trkpt lat="50.81204" lon="5.76524">
        <ele>127</ele>
        <time>2026-09-04T11:47:45+00:00</time>
      </trkpt>
      <trkpt lat="50.81182" lon="5.76492">
        <ele>127</ele>
        <time>2026-09-04T11:47:48+00:00</time>
      </trkpt>
      <trkpt lat="50.81161" lon="5.76505">
        <ele>127</ele>
        <time>2026-09-04T11:47:51+00:00</time>
      </trkpt>
      <trkpt lat="50.81137" lon="5.76519">
        <ele>129</ele>
        <time>2026-09-04T11:47:54+00:00</time>
      </trkpt>
      <trkpt lat="50.81133" lon="5.76513">
        <ele>129</ele>
        <time>2026-09-04T11:47:57+00:00</time>
      </trkpt>
      <trkpt lat="50.8111" lon="5.76495">
        <ele>131</ele>
        <time>2026-09-04T11:48:00+00:00</time>
      </trkpt>
      <trkpt lat="50.81065" lon="5.76462">
        <ele>133</ele>
        <time>2026-09-04T11:48:03+00:00</time>
      </trkpt>
      <trkpt lat="50.81045" lon="5.76444">
        <ele>134</ele>
        <time>2026-09-04T11:48:06+00:00</time>
      </trkpt>
      <trkpt lat="50.8102" lon="5.76423">
        <ele>135</ele>
        <time>2026-09-04T11:48:09+00:00</time>
      </trkpt>
      <trkpt lat="50.8101" lon="5.76408">
        <ele>136</ele>
        <time>2026-09-04T11:48:12+00:00</time>
      </trkpt>
      <trkpt lat="50.80993" lon="5.76374">
        <ele>137</ele>
        <time>2026-09-04T11:48:15+00:00</time>
      </trkpt>
      <trkpt lat="50.80982" lon="5.76344">
        <ele>139</ele>
        <time>2026-09-04T11:48:18+00:00</time>
      </trkpt>
      <trkpt lat="50.80969" lon="5.76311">
        <ele>139</ele>
        <time>2026-09-04T11:48:21+00:00</time>
      </trkpt>
      <trkpt lat="50.80963" lon="5.76301">
        <ele>140</ele>
        <time>2026-09-04T11:48:24+00:00</time>
      </trkpt>
      <trkpt lat="50.80938" lon="5.7628">
        <ele>139</ele>
        <time>2026-09-04T11:48:27+00:00</time>
      </trkpt>
      <trkpt lat="50.80913" lon="5.76259">
        <ele>139</ele>
        <time>2026-09-04T11:48:30+00:00</time>
      </trkpt>
      <trkpt lat="50.80873" lon="5.76225">
        <ele>139</ele>
        <time>2026-09-04T11:48:33+00:00</time>
      </trkpt>
      <trkpt lat="50.80898" lon="5.76213">
        <ele>139</ele>
        <time>2026-09-04T11:48:36+00:00</time>
      </trkpt>
      <trkpt lat="50.80937" lon="5.76194">
        <ele>139</ele>
        <time>2026-09-04T11:48:39+00:00</time>
      </trkpt>
      <trkpt lat="50.80967" lon="5.76171">
        <ele>137</ele>
        <time>2026-09-04T11:48:42+00:00</time>
      </trkpt>
      <trkpt lat="50.80998" lon="5.76149">
        <ele>137</ele>
        <time>2026-09-04T11:48:45+00:00</time>
      </trkpt>
      <trkpt lat="50.81028" lon="5.76126">
        <ele>136</ele>
        <time>2026-09-04T11:48:48+00:00</time>
      </trkpt>
      <trkpt lat="50.81079" lon="5.76088">
        <ele>136</ele>
        <time>2026-09-04T11:48:51+00:00</time>
      </trkpt>
      <trkpt lat="50.81111" lon="5.76066">
        <ele>136</ele>
        <time>2026-09-04T11:48:54+00:00</time>
      </trkpt>
      <trkpt lat="50.81142" lon="5.76044">
        <ele>136</ele>
        <time>2026-09-04T11:48:57+00:00</time>
      </trkpt>
      <trkpt lat="50.81174" lon="5.76021">
        <ele>133</ele>
        <time>2026-09-04T11:49:00+00:00</time>
      </trkpt>
      <trkpt lat="50.81206" lon="5.75999">
        <ele>132</ele>
        <time>2026-09-04T11:49:03+00:00</time>
      </trkpt>
      <trkpt lat="50.81249" lon="5.75969">
        <ele>131</ele>
        <time>2026-09-04T11:49:06+00:00</time>
      </trkpt>
      <trkpt lat="50.81269" lon="5.75952">
        <ele>130</ele>
        <time>2026-09-04T11:49:09+00:00</time>
      </trkpt>
      <trkpt lat="50.81293" lon="5.75931">
        <ele>129</ele>
        <time>2026-09-04T11:49:12+00:00</time>
      </trkpt>
      <trkpt lat="50.81314" lon="5.75906">
        <ele>129</ele>
        <time>2026-09-04T11:49:15+00:00</time>
      </trkpt>
      <trkpt lat="50.81349" lon="5.75866">
        <ele>128</ele>
        <time>2026-09-04T11:49:18+00:00</time>
      </trkpt>
      <trkpt lat="50.81373" lon="5.75858">
        <ele>127</ele>
        <time>2026-09-04T11:49:21+00:00</time>
      </trkpt>
      <trkpt lat="50.814" lon="5.75861">
        <ele>125</ele>
        <time>2026-09-04T11:49:24+00:00</time>
      </trkpt>
      <trkpt lat="50.81449" lon="5.75867">
        <ele>124</ele>
        <time>2026-09-04T11:49:27+00:00</time>
      </trkpt>
      <trkpt lat="50.81478" lon="5.75868">
        <ele>123</ele>
        <time>2026-09-04T11:49:30+00:00</time>
      </trkpt>
      <trkpt lat="50.81507" lon="5.7587">
        <ele>120</ele>
        <time>2026-09-04T11:49:33+00:00</time>
      </trkpt>
      <trkpt lat="50.81542" lon="5.75871">
        <ele>118</ele>
        <time>2026-09-04T11:49:36+00:00</time>
      </trkpt>
      <trkpt lat="50.81544" lon="5.75837">
        <ele>118</ele>
        <time>2026-09-04T11:49:39+00:00</time>
      </trkpt>
      <trkpt lat="50.81546" lon="5.75801">
        <ele>118</ele>
        <time>2026-09-04T11:49:42+00:00</time>
      </trkpt>
      <trkpt lat="50.81555" lon="5.75788">
        <ele>119</ele>
        <time>2026-09-04T11:49:45+00:00</time>
      </trkpt>
      <trkpt lat="50.81572" lon="5.75769">
        <ele>118</ele>
        <time>2026-09-04T11:49:48+00:00</time>
      </trkpt>
      <trkpt lat="50.81598" lon="5.7574">
        <ele>118</ele>
        <time>2026-09-04T11:49:51+00:00</time>
      </trkpt>
      <trkpt lat="50.8162" lon="5.75726">
        <ele>117</ele>
        <time>2026-09-04T11:49:54+00:00</time>
      </trkpt>
      <trkpt lat="50.81648" lon="5.75708">
        <ele>115</ele>
        <time>2026-09-04T11:49:57+00:00</time>
      </trkpt>
      <trkpt lat="50.81639" lon="5.7566">
        <ele>115</ele>
        <time>2026-09-04T11:50:00+00:00</time>
      </trkpt>
      <trkpt lat="50.81629" lon="5.75613">
        <ele>116</ele>
        <time>2026-09-04T11:50:03+00:00</time>
      </trkpt>
      <trkpt lat="50.81612" lon="5.75524">
        <ele>116</ele>
        <time>2026-09-04T11:50:06+00:00</time>
      </trkpt>
      <trkpt lat="50.81585" lon="5.75531">
        <ele>116</ele>
        <time>2026-09-04T11:50:09+00:00</time>
      </trkpt>
      <trkpt lat="50.81535" lon="5.75545">
        <ele>116</ele>
        <time>2026-09-04T11:50:12+00:00</time>
      </trkpt>
      <trkpt lat="50.81514" lon="5.75521">
        <ele>117</ele>
        <time>2026-09-04T11:50:15+00:00</time>
      </trkpt>
      <trkpt lat="50.81482" lon="5.75483">
        <ele>119</ele>
        <time>2026-09-04T11:50:18+00:00</time>
      </trkpt>
      <trkpt lat="50.8145" lon="5.7548">
        <ele>119</ele>
        <time>2026-09-04T11:50:21+00:00</time>
      </trkpt>
      <trkpt lat="50.81418" lon="5.75477">
        <ele>119</ele>
        <time>2026-09-04T11:50:24+00:00</time>
      </trkpt>
      <trkpt lat="50.81356" lon="5.75472">
        <ele>121</ele>
        <time>2026-09-04T11:50:27+00:00</time>
      </trkpt>
      <trkpt lat="50.81348" lon="5.75475">
        <ele>121</ele>
        <time>2026-09-04T11:50:30+00:00</time>
      </trkpt>
      <trkpt lat="50.81346" lon="5.75465">
        <ele>122</ele>
        <time>2026-09-04T11:50:33+00:00</time>
      </trkpt>
      <trkpt lat="50.81345" lon="5.75462">
        <ele>122</ele>
        <time>2026-09-04T11:50:36+00:00</time>
      </trkpt>
      <trkpt lat="50.81327" lon="5.75468">
        <ele>122</ele>
        <time>2026-09-04T11:50:39+00:00</time>
      </trkpt>
      <trkpt lat="50.81299" lon="5.75477">
        <ele>123</ele>
        <time>2026-09-04T11:50:42+00:00</time>
      </trkpt>
      <trkpt lat="50.81308" lon="5.75453">
        <ele>123</ele>
        <time>2026-09-04T11:50:45+00:00</time>
      </trkpt>
      <trkpt lat="50.81329" lon="5.75414">
        <ele>123</ele>
        <time>2026-09-04T11:50:48+00:00</time>
      </trkpt>
      <trkpt lat="50.81349" lon="5.75374">
        <ele>122</ele>
        <time>2026-09-04T11:50:51+00:00</time>
      </trkpt>
      <trkpt lat="50.8137" lon="5.75335">
        <ele>121</ele>
        <time>2026-09-04T11:50:54+00:00</time>
      </trkpt>
      <trkpt lat="50.81393" lon="5.75291">
        <ele>121</ele>
        <time>2026-09-04T11:50:57+00:00</time>
      </trkpt>
      <trkpt lat="50.81388" lon="5.75239">
        <ele>119</ele>
        <time>2026-09-04T11:51:00+00:00</time>
      </trkpt>
      <trkpt lat="50.81377" lon="5.752">
        <ele>119</ele>
        <time>2026-09-04T11:51:03+00:00</time>
      </trkpt>
      <trkpt lat="50.8136" lon="5.75183">
        <ele>121</ele>
        <time>2026-09-04T11:51:06+00:00</time>
      </trkpt>
      <trkpt lat="50.81337" lon="5.7518">
        <ele>122</ele>
        <time>2026-09-04T11:51:09+00:00</time>
      </trkpt>
      <trkpt lat="50.81308" lon="5.75182">
        <ele>123</ele>
        <time>2026-09-04T11:51:12+00:00</time>
      </trkpt>
      <trkpt lat="50.81279" lon="5.75184">
        <ele>124</ele>
        <time>2026-09-04T11:51:15+00:00</time>
      </trkpt>
      <trkpt lat="50.81244" lon="5.75186">
        <ele>123</ele>
        <time>2026-09-04T11:51:18+00:00</time>
      </trkpt>
      <trkpt lat="50.81217" lon="5.75182">
        <ele>123</ele>
        <time>2026-09-04T11:51:21+00:00</time>
      </trkpt>
      <trkpt lat="50.81169" lon="5.75174">
        <ele>123</ele>
        <time>2026-09-04T11:51:24+00:00</time>
      </trkpt>
      <trkpt lat="50.8115" lon="5.7519">
        <ele>123</ele>
        <time>2026-09-04T11:51:27+00:00</time>
      </trkpt>
      <trkpt lat="50.81131" lon="5.75207">
        <ele>123</ele>
        <time>2026-09-04T11:51:30+00:00</time>
      </trkpt>
      <trkpt lat="50.81113" lon="5.75244">
        <ele>124</ele>
        <time>2026-09-04T11:51:33+00:00</time>
      </trkpt>
      <trkpt lat="50.81096" lon="5.75282">
        <ele>124</ele>
        <time>2026-09-04T11:51:36+00:00</time>
      </trkpt>
      <trkpt lat="50.81074" lon="5.75328">
        <ele>124</ele>
        <time>2026-09-04T11:51:39+00:00</time>
      </trkpt>
      <trkpt lat="50.81055" lon="5.75334">
        <ele>123</ele>
        <time>2026-09-04T11:51:42+00:00</time>
      </trkpt>
      <trkpt lat="50.81044" lon="5.7533">
        <ele>123</ele>
        <time>2026-09-04T11:51:45+00:00</time>
      </trkpt>
      <trkpt lat="50.8104" lon="5.75282">
        <ele>124</ele>
        <time>2026-09-04T11:51:48+00:00</time>
      </trkpt>
      <trkpt lat="50.81036" lon="5.75234">
        <ele>125</ele>
        <time>2026-09-04T11:51:51+00:00</time>
      </trkpt>
      <trkpt lat="50.81033" lon="5.75185">
        <ele>126</ele>
        <time>2026-09-04T11:51:54+00:00</time>
      </trkpt>
      <trkpt lat="50.81027" lon="5.75112">
        <ele>126</ele>
        <time>2026-09-04T11:51:57+00:00</time>
      </trkpt>
      <trkpt lat="50.81039" lon="5.75061">
        <ele>126</ele>
        <time>2026-09-04T11:52:00+00:00</time>
      </trkpt>
      <trkpt lat="50.81051" lon="5.75011">
        <ele>126</ele>
        <time>2026-09-04T11:52:03+00:00</time>
      </trkpt>
      <trkpt lat="50.81063" lon="5.7496">
        <ele>126</ele>
        <time>2026-09-04T11:52:06+00:00</time>
      </trkpt>
      <trkpt lat="50.81075" lon="5.7491">
        <ele>124</ele>
        <time>2026-09-04T11:52:09+00:00</time>
      </trkpt>
      <trkpt lat="50.81088" lon="5.74857">
        <ele>123</ele>
        <time>2026-09-04T11:52:12+00:00</time>
      </trkpt>
      <trkpt lat="50.81058" lon="5.74842">
        <ele>123</ele>
        <time>2026-09-04T11:52:15+00:00</time>
      </trkpt>
      <trkpt lat="50.81027" lon="5.74827">
        <ele>123</ele>
        <time>2026-09-04T11:52:18+00:00</time>
      </trkpt>
      <trkpt lat="50.80967" lon="5.74798">
        <ele>123</ele>
        <time>2026-09-04T11:52:21+00:00</time>
      </trkpt>
      <trkpt lat="50.80982" lon="5.74742">
        <ele>127</ele>
        <time>2026-09-04T11:52:24+00:00</time>
      </trkpt>
      <trkpt lat="50.80996" lon="5.74712">
        <ele>131</ele>
        <time>2026-09-04T11:52:27+00:00</time>
      </trkpt>
      <trkpt lat="50.80982" lon="5.74698">
        <ele>133</ele>
        <time>2026-09-04T11:52:30+00:00</time>
      </trkpt>
      <trkpt lat="50.80961" lon="5.74683">
        <ele>129</ele>
        <time>2026-09-04T11:52:33+00:00</time>
      </trkpt>
      <trkpt lat="50.80952" lon="5.74683">
        <ele>132</ele>
        <time>2026-09-04T11:52:36+00:00</time>
      </trkpt>
      <trkpt lat="50.80924" lon="5.74696">
        <ele>128</ele>
        <time>2026-09-04T11:52:39+00:00</time>
      </trkpt>
      <trkpt lat="50.80922" lon="5.74695">
        <ele>128</ele>
        <time>2026-09-04T11:52:42+00:00</time>
      </trkpt>
      <trkpt lat="50.80919" lon="5.74688">
        <ele>127</ele>
        <time>2026-09-04T11:52:45+00:00</time>
      </trkpt>
      <trkpt lat="50.80917" lon="5.74673">
        <ele>127</ele>
        <time>2026-09-04T11:52:48+00:00</time>
      </trkpt>
      <trkpt lat="50.80915" lon="5.74637">
        <ele>127</ele>
        <time>2026-09-04T11:52:51+00:00</time>
      </trkpt>
      <trkpt lat="50.80917" lon="5.74601">
        <ele>126</ele>
        <time>2026-09-04T11:52:54+00:00</time>
      </trkpt>
      <trkpt lat="50.80922" lon="5.74558">
        <ele>125</ele>
        <time>2026-09-04T11:52:57+00:00</time>
      </trkpt>
      <trkpt lat="50.80922" lon="5.74503">
        <ele>122</ele>
        <time>2026-09-04T11:53:00+00:00</time>
      </trkpt>
      <trkpt lat="50.80915" lon="5.74467">
        <ele>120</ele>
        <time>2026-09-04T11:53:03+00:00</time>
      </trkpt>
      <trkpt lat="50.80915" lon="5.74442">
        <ele>121</ele>
        <time>2026-09-04T11:53:06+00:00</time>
      </trkpt>
      <trkpt lat="50.80925" lon="5.74423">
        <ele>120</ele>
        <time>2026-09-04T11:53:09+00:00</time>
      </trkpt>
      <trkpt lat="50.80937" lon="5.744">
        <ele>119</ele>
        <time>2026-09-04T11:53:12+00:00</time>
      </trkpt>
      <trkpt lat="50.80939" lon="5.74393">
        <ele>118</ele>
        <time>2026-09-04T11:53:15+00:00</time>
      </trkpt>
      <trkpt lat="50.80937" lon="5.74383">
        <ele>116</ele>
        <time>2026-09-04T11:53:18+00:00</time>
      </trkpt>
      <trkpt lat="50.80928" lon="5.7437">
        <ele>119</ele>
        <time>2026-09-04T11:53:21+00:00</time>
      </trkpt>
      <trkpt lat="50.80924" lon="5.74368">
        <ele>119</ele>
        <time>2026-09-04T11:53:24+00:00</time>
      </trkpt>
      <trkpt lat="50.80891" lon="5.74369">
        <ele>122</ele>
        <time>2026-09-04T11:53:27+00:00</time>
      </trkpt>
      <trkpt lat="50.80858" lon="5.7437">
        <ele>126</ele>
        <time>2026-09-04T11:53:30+00:00</time>
      </trkpt>
      <trkpt lat="50.80825" lon="5.74371">
        <ele>132</ele>
        <time>2026-09-04T11:53:33+00:00</time>
      </trkpt>
      <trkpt lat="50.80764" lon="5.74373">
        <ele>136</ele>
        <time>2026-09-04T11:53:36+00:00</time>
      </trkpt>
      <trkpt lat="50.80765" lon="5.74361">
        <ele>137</ele>
        <time>2026-09-04T11:53:39+00:00</time>
      </trkpt>
      <trkpt lat="50.80767" lon="5.74353">
        <ele>138</ele>
        <time>2026-09-04T11:53:42+00:00</time>
      </trkpt>
      <trkpt lat="50.80786" lon="5.74333">
        <ele>137</ele>
        <time>2026-09-04T11:53:45+00:00</time>
      </trkpt>
      <trkpt lat="50.80807" lon="5.74304">
        <ele>137</ele>
        <time>2026-09-04T11:53:48+00:00</time>
      </trkpt>
      <trkpt lat="50.80848" lon="5.7425">
        <ele>136</ele>
        <time>2026-09-04T11:53:51+00:00</time>
      </trkpt>
      <trkpt lat="50.80867" lon="5.74217">
        <ele>136</ele>
        <time>2026-09-04T11:53:54+00:00</time>
      </trkpt>
      <trkpt lat="50.80871" lon="5.74199">
        <ele>136</ele>
        <time>2026-09-04T11:53:57+00:00</time>
      </trkpt>
      <trkpt lat="50.80871" lon="5.74178">
        <ele>134</ele>
        <time>2026-09-04T11:54:00+00:00</time>
      </trkpt>
      <trkpt lat="50.80867" lon="5.7416">
        <ele>133</ele>
        <time>2026-09-04T11:54:03+00:00</time>
      </trkpt>
      <trkpt lat="50.80862" lon="5.74147">
        <ele>128</ele>
        <time>2026-09-04T11:54:06+00:00</time>
      </trkpt>
      <trkpt lat="50.80858" lon="5.74142">
        <ele>129</ele>
        <time>2026-09-04T11:54:09+00:00</time>
      </trkpt>
      <trkpt lat="50.80845" lon="5.74137">
        <ele>128</ele>
        <time>2026-09-04T11:54:12+00:00</time>
      </trkpt>
      <trkpt lat="50.80839" lon="5.74138">
        <ele>129</ele>
        <time>2026-09-04T11:54:15+00:00</time>
      </trkpt>
      <trkpt lat="50.8083" lon="5.74141">
        <ele>130</ele>
        <time>2026-09-04T11:54:18+00:00</time>
      </trkpt>
      <trkpt lat="50.80812" lon="5.74156">
        <ele>134</ele>
        <time>2026-09-04T11:54:21+00:00</time>
      </trkpt>
      <trkpt lat="50.80783" lon="5.74187">
        <ele>138</ele>
        <time>2026-09-04T11:54:24+00:00</time>
      </trkpt>
      <trkpt lat="50.80752" lon="5.74224">
        <ele>140</ele>
        <time>2026-09-04T11:54:27+00:00</time>
      </trkpt>
      <trkpt lat="50.80737" lon="5.74237">
        <ele>139</ele>
        <time>2026-09-04T11:54:30+00:00</time>
      </trkpt>
      <trkpt lat="50.80727" lon="5.74243">
        <ele>141</ele>
        <time>2026-09-04T11:54:33+00:00</time>
      </trkpt>
      <trkpt lat="50.8071" lon="5.74246">
        <ele>139</ele>
        <time>2026-09-04T11:54:36+00:00</time>
      </trkpt>
      <trkpt lat="50.80671" lon="5.74237">
        <ele>134</ele>
        <time>2026-09-04T11:54:39+00:00</time>
      </trkpt>
      <trkpt lat="50.80647" lon="5.74245">
        <ele>130</ele>
        <time>2026-09-04T11:54:42+00:00</time>
      </trkpt>
      <trkpt lat="50.80635" lon="5.7424">
        <ele>129</ele>
        <time>2026-09-04T11:54:45+00:00</time>
      </trkpt>
      <trkpt lat="50.80624" lon="5.74244">
        <ele>130</ele>
        <time>2026-09-04T11:54:48+00:00</time>
      </trkpt>
      <trkpt lat="50.80617" lon="5.74244">
        <ele>126</ele>
        <time>2026-09-04T11:54:51+00:00</time>
      </trkpt>
      <trkpt lat="50.80609" lon="5.7427">
        <ele>130</ele>
        <time>2026-09-04T11:54:54+00:00</time>
      </trkpt>
      <trkpt lat="50.80603" lon="5.74286">
        <ele>132</ele>
        <time>2026-09-04T11:54:57+00:00</time>
      </trkpt>
      <trkpt lat="50.80599" lon="5.74286">
        <ele>132</ele>
        <time>2026-09-04T11:55:00+00:00</time>
      </trkpt>
      <trkpt lat="50.8059" lon="5.7427">
        <ele>130</ele>
        <time>2026-09-04T11:55:03+00:00</time>
      </trkpt>
      <trkpt lat="50.8058" lon="5.74264">
        <ele>128</ele>
        <time>2026-09-04T11:55:06+00:00</time>
      </trkpt>
      <trkpt lat="50.80581" lon="5.74303">
        <ele>134</ele>
        <time>2026-09-04T11:55:09+00:00</time>
      </trkpt>
      <trkpt lat="50.80582" lon="5.74379">
        <ele>134</ele>
        <time>2026-09-04T11:55:12+00:00</time>
      </trkpt>
      <trkpt lat="50.80551" lon="5.74385">
        <ele>137</ele>
        <time>2026-09-04T11:55:15+00:00</time>
      </trkpt>
      <trkpt lat="50.8052" lon="5.74385">
        <ele>137</ele>
        <time>2026-09-04T11:55:18+00:00</time>
      </trkpt>
      <trkpt lat="50.8049" lon="5.74386">
        <ele>138</ele>
        <time>2026-09-04T11:55:21+00:00</time>
      </trkpt>
      <trkpt lat="50.80443" lon="5.74387">
        <ele>138</ele>
        <time>2026-09-04T11:55:24+00:00</time>
      </trkpt>
      <trkpt lat="50.80422" lon="5.74384">
        <ele>137</ele>
        <time>2026-09-04T11:55:27+00:00</time>
      </trkpt>
      <trkpt lat="50.80388" lon="5.74385">
        <ele>137</ele>
        <time>2026-09-04T11:55:30+00:00</time>
      </trkpt>
      <trkpt lat="50.80384" lon="5.74396">
        <ele>136</ele>
        <time>2026-09-04T11:55:33+00:00</time>
      </trkpt>
      <trkpt lat="50.80386" lon="5.74412">
        <ele>138</ele>
        <time>2026-09-04T11:55:36+00:00</time>
      </trkpt>
      <trkpt lat="50.804" lon="5.74438">
        <ele>139</ele>
        <time>2026-09-04T11:55:39+00:00</time>
      </trkpt>
      <trkpt lat="50.80416" lon="5.74467">
        <ele>138</ele>
        <time>2026-09-04T11:55:42+00:00</time>
      </trkpt>
      <trkpt lat="50.80424" lon="5.74492">
        <ele>138</ele>
        <time>2026-09-04T11:55:45+00:00</time>
      </trkpt>
      <trkpt lat="50.80426" lon="5.74511">
        <ele>139</ele>
        <time>2026-09-04T11:55:48+00:00</time>
      </trkpt>
      <trkpt lat="50.80419" lon="5.74514">
        <ele>138</ele>
        <time>2026-09-04T11:55:51+00:00</time>
      </trkpt>
      <trkpt lat="50.80415" lon="5.7452">
        <ele>139</ele>
        <time>2026-09-04T11:55:54+00:00</time>
      </trkpt>
      <trkpt lat="50.80402" lon="5.74528">
        <ele>138</ele>
        <time>2026-09-04T11:55:57+00:00</time>
      </trkpt>
      <trkpt lat="50.80379" lon="5.74522">
        <ele>130</ele>
        <time>2026-09-04T11:56:00+00:00</time>
      </trkpt>
      <trkpt lat="50.8037" lon="5.74523">
        <ele>127</ele>
        <time>2026-09-04T11:56:03+00:00</time>
      </trkpt>
      <trkpt lat="50.80359" lon="5.74536">
        <ele>128</ele>
        <time>2026-09-04T11:56:06+00:00</time>
      </trkpt>
      <trkpt lat="50.80351" lon="5.74556">
        <ele>127</ele>
        <time>2026-09-04T11:56:09+00:00</time>
      </trkpt>
      <trkpt lat="50.80345" lon="5.74581">
        <ele>129</ele>
        <time>2026-09-04T11:56:12+00:00</time>
      </trkpt>
      <trkpt lat="50.80341" lon="5.74627">
        <ele>130</ele>
        <time>2026-09-04T11:56:15+00:00</time>
      </trkpt>
      <trkpt lat="50.80341" lon="5.7465">
        <ele>133</ele>
        <time>2026-09-04T11:56:18+00:00</time>
      </trkpt>
      <trkpt lat="50.80345" lon="5.74684">
        <ele>135</ele>
        <time>2026-09-04T11:56:21+00:00</time>
      </trkpt>
      <trkpt lat="50.80354" lon="5.74743">
        <ele>138</ele>
        <time>2026-09-04T11:56:24+00:00</time>
      </trkpt>
      <trkpt lat="50.80361" lon="5.74762">
        <ele>139</ele>
        <time>2026-09-04T11:56:27+00:00</time>
      </trkpt>
      <trkpt lat="50.80375" lon="5.7479">
        <ele>138</ele>
        <time>2026-09-04T11:56:30+00:00</time>
      </trkpt>
      <trkpt lat="50.80404" lon="5.74832">
        <ele>138</ele>
        <time>2026-09-04T11:56:33+00:00</time>
      </trkpt>
      <trkpt lat="50.80415" lon="5.74844">
        <ele>138</ele>
        <time>2026-09-04T11:56:36+00:00</time>
      </trkpt>
      <trkpt lat="50.80422" lon="5.74846">
        <ele>138</ele>
        <time>2026-09-04T11:56:39+00:00</time>
      </trkpt>
      <trkpt lat="50.80425" lon="5.74857">
        <ele>136</ele>
        <time>2026-09-04T11:56:42+00:00</time>
      </trkpt>
      <trkpt lat="50.80436" lon="5.74887">
        <ele>134</ele>
        <time>2026-09-04T11:56:45+00:00</time>
      </trkpt>
      <trkpt lat="50.80453" lon="5.74932">
        <ele>134</ele>
        <time>2026-09-04T11:56:48+00:00</time>
      </trkpt>
      <trkpt lat="50.80466" lon="5.74971">
        <ele>134</ele>
        <time>2026-09-04T11:56:51+00:00</time>
      </trkpt>
      <trkpt lat="50.8049" lon="5.75042">
        <ele>134</ele>
        <time>2026-09-04T11:56:54+00:00</time>
      </trkpt>
      <trkpt lat="50.80492" lon="5.75056">
        <ele>134</ele>
        <time>2026-09-04T11:56:57+00:00</time>
      </trkpt>
      <trkpt lat="50.8049" lon="5.75073">
        <ele>134</ele>
        <time>2026-09-04T11:57:00+00:00</time>
      </trkpt>
      <trkpt lat="50.80485" lon="5.75086">
        <ele>134</ele>
        <time>2026-09-04T11:57:03+00:00</time>
      </trkpt>
      <trkpt lat="50.80481" lon="5.75089">
        <ele>134</ele>
        <time>2026-09-04T11:57:06+00:00</time>
      </trkpt>
      <trkpt lat="50.80467" lon="5.75093">
        <ele>134</ele>
        <time>2026-09-04T11:57:09+00:00</time>
      </trkpt>
      <trkpt lat="50.80463" lon="5.75092">
        <ele>133</ele>
        <time>2026-09-04T11:57:12+00:00</time>
      </trkpt>
      <trkpt lat="50.80456" lon="5.75063">
        <ele>134</ele>
        <time>2026-09-04T11:57:15+00:00</time>
      </trkpt>
      <trkpt lat="50.8044" lon="5.75044">
        <ele>134</ele>
        <time>2026-09-04T11:57:18+00:00</time>
      </trkpt>
      <trkpt lat="50.80425" lon="5.75061">
        <ele>132</ele>
        <time>2026-09-04T11:57:21+00:00</time>
      </trkpt>
      <trkpt lat="50.80422" lon="5.75061">
        <ele>132</ele>
        <time>2026-09-04T11:57:24+00:00</time>
      </trkpt>
      <trkpt lat="50.80416" lon="5.75067">
        <ele>132</ele>
        <time>2026-09-04T11:57:27+00:00</time>
      </trkpt>
      <trkpt lat="50.80416" lon="5.75073">
        <ele>131</ele>
        <time>2026-09-04T11:57:30+00:00</time>
      </trkpt>
      <trkpt lat="50.80413" lon="5.75078">
        <ele>133</ele>
        <time>2026-09-04T11:57:33+00:00</time>
      </trkpt>
      <trkpt lat="50.80407" lon="5.75076">
        <ele>131</ele>
        <time>2026-09-04T11:57:36+00:00</time>
      </trkpt>
      <trkpt lat="50.80406" lon="5.75066">
        <ele>132</ele>
        <time>2026-09-04T11:57:39+00:00</time>
      </trkpt>
      <trkpt lat="50.80394" lon="5.75046">
        <ele>134</ele>
        <time>2026-09-04T11:57:42+00:00</time>
      </trkpt>
      <trkpt lat="50.80384" lon="5.7502">
        <ele>135</ele>
        <time>2026-09-04T11:57:45+00:00</time>
      </trkpt>
      <trkpt lat="50.80379" lon="5.75018">
        <ele>136</ele>
        <time>2026-09-04T11:57:48+00:00</time>
      </trkpt>
      <trkpt lat="50.80372" lon="5.75037">
        <ele>135</ele>
        <time>2026-09-04T11:57:51+00:00</time>
      </trkpt>
      <trkpt lat="50.80367" lon="5.75046">
        <ele>135</ele>
        <time>2026-09-04T11:57:54+00:00</time>
      </trkpt>
      <trkpt lat="50.80349" lon="5.75062">
        <ele>134</ele>
        <time>2026-09-04T11:57:57+00:00</time>
      </trkpt>
      <trkpt lat="50.80337" lon="5.75092">
        <ele>134</ele>
        <time>2026-09-04T11:58:00+00:00</time>
      </trkpt>
      <trkpt lat="50.80324" lon="5.75096">
        <ele>135</ele>
        <time>2026-09-04T11:58:03+00:00</time>
      </trkpt>
      <trkpt lat="50.80308" lon="5.75094">
        <ele>136</ele>
        <time>2026-09-04T11:58:06+00:00</time>
      </trkpt>
      <trkpt lat="50.80298" lon="5.75084">
        <ele>138</ele>
        <time>2026-09-04T11:58:09+00:00</time>
      </trkpt>
      <trkpt lat="50.80287" lon="5.75064">
        <ele>141</ele>
        <time>2026-09-04T11:58:12+00:00</time>
      </trkpt>
      <trkpt lat="50.80273" lon="5.75056">
        <ele>142</ele>
        <time>2026-09-04T11:58:15+00:00</time>
      </trkpt>
      <trkpt lat="50.80265" lon="5.75056">
        <ele>139</ele>
        <time>2026-09-04T11:58:18+00:00</time>
      </trkpt>
      <trkpt lat="50.80262" lon="5.75058">
        <ele>142</ele>
        <time>2026-09-04T11:58:21+00:00</time>
      </trkpt>
      <trkpt lat="50.80253" lon="5.75069">
        <ele>139</ele>
        <time>2026-09-04T11:58:24+00:00</time>
      </trkpt>
      <trkpt lat="50.80245" lon="5.75073">
        <ele>141</ele>
        <time>2026-09-04T11:58:27+00:00</time>
      </trkpt>
      <trkpt lat="50.8024" lon="5.75072">
        <ele>137</ele>
        <time>2026-09-04T11:58:30+00:00</time>
      </trkpt>
      <trkpt lat="50.8025" lon="5.75028">
        <ele>144</ele>
        <time>2026-09-04T11:58:33+00:00</time>
      </trkpt>
      <trkpt lat="50.80263" lon="5.74986">
        <ele>140</ele>
        <time>2026-09-04T11:58:36+00:00</time>
      </trkpt>
      <trkpt lat="50.80269" lon="5.74963">
        <ele>143</ele>
        <time>2026-09-04T11:58:39+00:00</time>
      </trkpt>
      <trkpt lat="50.80281" lon="5.74937">
        <ele>137</ele>
        <time>2026-09-04T11:58:42+00:00</time>
      </trkpt>
      <trkpt lat="50.80295" lon="5.74915">
        <ele>135</ele>
        <time>2026-09-04T11:58:45+00:00</time>
      </trkpt>
      <trkpt lat="50.80311" lon="5.74901">
        <ele>132</ele>
        <time>2026-09-04T11:58:48+00:00</time>
      </trkpt>
      <trkpt lat="50.80303" lon="5.74871">
        <ele>131</ele>
        <time>2026-09-04T11:58:51+00:00</time>
      </trkpt>
      <trkpt lat="50.80292" lon="5.74843">
        <ele>129</ele>
        <time>2026-09-04T11:58:54+00:00</time>
      </trkpt>
      <trkpt lat="50.80278" lon="5.74813">
        <ele>129</ele>
        <time>2026-09-04T11:58:57+00:00</time>
      </trkpt>
      <trkpt lat="50.80261" lon="5.74776">
        <ele>125</ele>
        <time>2026-09-04T11:59:00+00:00</time>
      </trkpt>
      <trkpt lat="50.80252" lon="5.74741">
        <ele>124</ele>
        <time>2026-09-04T11:59:03+00:00</time>
      </trkpt>
      <trkpt lat="50.80243" lon="5.74688">
        <ele>123</ele>
        <time>2026-09-04T11:59:06+00:00</time>
      </trkpt>
      <trkpt lat="50.80238" lon="5.74622">
        <ele>123</ele>
        <time>2026-09-04T11:59:09+00:00</time>
      </trkpt>
      <trkpt lat="50.8024" lon="5.74574">
        <ele>117</ele>
        <time>2026-09-04T11:59:12+00:00</time>
      </trkpt>
      <trkpt lat="50.80252" lon="5.74513">
        <ele>117</ele>
        <time>2026-09-04T11:59:15+00:00</time>
      </trkpt>
      <trkpt lat="50.80246" lon="5.74513">
        <ele>114</ele>
        <time>2026-09-04T11:59:18+00:00</time>
      </trkpt>
      <trkpt lat="50.8024" lon="5.74521">
        <ele>114</ele>
        <time>2026-09-04T11:59:21+00:00</time>
      </trkpt>
      <trkpt lat="50.80228" lon="5.74544">
        <ele>117</ele>
        <time>2026-09-04T11:59:24+00:00</time>
      </trkpt>
      <trkpt lat="50.80208" lon="5.74565">
        <ele>121</ele>
        <time>2026-09-04T11:59:27+00:00</time>
      </trkpt>
      <trkpt lat="50.8017" lon="5.7458">
        <ele>131</ele>
        <time>2026-09-04T11:59:30+00:00</time>
      </trkpt>
      <trkpt lat="50.8014" lon="5.74595">
        <ele>134</ele>
        <time>2026-09-04T11:59:33+00:00</time>
      </trkpt>
      <trkpt lat="50.80128" lon="5.74599">
        <ele>137</ele>
        <time>2026-09-04T11:59:36+00:00</time>
      </trkpt>
      <trkpt lat="50.80119" lon="5.74593">
        <ele>134</ele>
        <time>2026-09-04T11:59:39+00:00</time>
      </trkpt>
      <trkpt lat="50.80112" lon="5.74581">
        <ele>135</ele>
        <time>2026-09-04T11:59:42+00:00</time>
      </trkpt>
      <trkpt lat="50.80106" lon="5.74563">
        <ele>134</ele>
        <time>2026-09-04T11:59:45+00:00</time>
      </trkpt>
      <trkpt lat="50.80094" lon="5.74511">
        <ele>133</ele>
        <time>2026-09-04T11:59:48+00:00</time>
      </trkpt>
      <trkpt lat="50.80085" lon="5.74495">
        <ele>132</ele>
        <time>2026-09-04T11:59:51+00:00</time>
      </trkpt>
      <trkpt lat="50.80076" lon="5.74482">
        <ele>129</ele>
        <time>2026-09-04T11:59:54+00:00</time>
      </trkpt>
      <trkpt lat="50.80065" lon="5.74479">
        <ele>127</ele>
        <time>2026-09-04T11:59:57+00:00</time>
      </trkpt>
      <trkpt lat="50.80034" lon="5.74484">
        <ele>122</ele>
        <time>2026-09-04T12:00:00+00:00</time>
      </trkpt>
      <trkpt lat="50.79994" lon="5.74483">
        <ele>118</ele>
        <time>2026-09-04T12:00:03+00:00</time>
      </trkpt>
      <trkpt lat="50.7998" lon="5.7448">
        <ele>118</ele>
        <time>2026-09-04T12:00:06+00:00</time>
      </trkpt>
      <trkpt lat="50.79966" lon="5.74486">
        <ele>117</ele>
        <time>2026-09-04T12:00:09+00:00</time>
      </trkpt>
      <trkpt lat="50.79957" lon="5.74485">
        <ele>117</ele>
        <time>2026-09-04T12:00:12+00:00</time>
      </trkpt>
      <trkpt lat="50.79944" lon="5.74488">
        <ele>116</ele>
        <time>2026-09-04T12:00:15+00:00</time>
      </trkpt>
      <trkpt lat="50.79937" lon="5.74483">
        <ele>116</ele>
        <time>2026-09-04T12:00:18+00:00</time>
      </trkpt>
      <trkpt lat="50.79928" lon="5.74479">
        <ele>115</ele>
        <time>2026-09-04T12:00:21+00:00</time>
      </trkpt>
      <trkpt lat="50.79903" lon="5.74475">
        <ele>118</ele>
        <time>2026-09-04T12:00:24+00:00</time>
      </trkpt>
      <trkpt lat="50.79888" lon="5.74476">
        <ele>116</ele>
        <time>2026-09-04T12:00:27+00:00</time>
      </trkpt>
      <trkpt lat="50.79865" lon="5.74485">
        <ele>120</ele>
        <time>2026-09-04T12:00:30+00:00</time>
      </trkpt>
      <trkpt lat="50.79857" lon="5.74484">
        <ele>122</ele>
        <time>2026-09-04T12:00:33+00:00</time>
      </trkpt>
      <trkpt lat="50.79852" lon="5.7448">
        <ele>122</ele>
        <time>2026-09-04T12:00:36+00:00</time>
      </trkpt>
      <trkpt lat="50.79829" lon="5.74487">
        <ele>126</ele>
        <time>2026-09-04T12:00:39+00:00</time>
      </trkpt>
      <trkpt lat="50.79819" lon="5.74487">
        <ele>126</ele>
        <time>2026-09-04T12:00:42+00:00</time>
      </trkpt>
      <trkpt lat="50.79818" lon="5.74494">
        <ele>129</ele>
        <time>2026-09-04T12:00:45+00:00</time>
      </trkpt>
      <trkpt lat="50.79808" lon="5.74505">
        <ele>130</ele>
        <time>2026-09-04T12:00:48+00:00</time>
      </trkpt>
      <trkpt lat="50.79804" lon="5.7452">
        <ele>133</ele>
        <time>2026-09-04T12:00:51+00:00</time>
      </trkpt>
      <trkpt lat="50.79805" lon="5.74555">
        <ele>132</ele>
        <time>2026-09-04T12:00:54+00:00</time>
      </trkpt>
      <trkpt lat="50.79804" lon="5.74565">
        <ele>131</ele>
        <time>2026-09-04T12:00:57+00:00</time>
      </trkpt>
      <trkpt lat="50.79789" lon="5.74578">
        <ele>132</ele>
        <time>2026-09-04T12:01:00+00:00</time>
      </trkpt>
      <trkpt lat="50.79785" lon="5.74594">
        <ele>131</ele>
        <time>2026-09-04T12:01:03+00:00</time>
      </trkpt>
      <trkpt lat="50.79774" lon="5.74616">
        <ele>133</ele>
        <time>2026-09-04T12:01:06+00:00</time>
      </trkpt>
      <trkpt lat="50.79767" lon="5.74617">
        <ele>135</ele>
        <time>2026-09-04T12:01:09+00:00</time>
      </trkpt>
      <trkpt lat="50.7975" lon="5.74614">
        <ele>137</ele>
        <time>2026-09-04T12:01:12+00:00</time>
      </trkpt>
      <trkpt lat="50.7974" lon="5.74609">
        <ele>139</ele>
        <time>2026-09-04T12:01:15+00:00</time>
      </trkpt>
      <trkpt lat="50.79734" lon="5.746">
        <ele>134</ele>
        <time>2026-09-04T12:01:18+00:00</time>
      </trkpt>
      <trkpt lat="50.79726" lon="5.74553">
        <ele>131</ele>
        <time>2026-09-04T12:01:21+00:00</time>
      </trkpt>
      <trkpt lat="50.79738" lon="5.74501">
        <ele>129</ele>
        <time>2026-09-04T12:01:24+00:00</time>
      </trkpt>
      <trkpt lat="50.79737" lon="5.74482">
        <ele>126</ele>
        <time>2026-09-04T12:01:27+00:00</time>
      </trkpt>
      <trkpt lat="50.79734" lon="5.74473">
        <ele>125</ele>
        <time>2026-09-04T12:01:30+00:00</time>
      </trkpt>
      <trkpt lat="50.79724" lon="5.74458">
        <ele>118</ele>
        <time>2026-09-04T12:01:33+00:00</time>
      </trkpt>
      <trkpt lat="50.7972" lon="5.74449">
        <ele>116</ele>
        <time>2026-09-04T12:01:36+00:00</time>
      </trkpt>
      <trkpt lat="50.79717" lon="5.74428">
        <ele>109</ele>
        <time>2026-09-04T12:01:39+00:00</time>
      </trkpt>
      <trkpt lat="50.79714" lon="5.74423">
        <ele>109</ele>
        <time>2026-09-04T12:01:42+00:00</time>
      </trkpt>
      <trkpt lat="50.79703" lon="5.74417">
        <ele>105</ele>
        <time>2026-09-04T12:01:45+00:00</time>
      </trkpt>
      <trkpt lat="50.79692" lon="5.74416">
        <ele>102</ele>
        <time>2026-09-04T12:01:48+00:00</time>
      </trkpt>
      <trkpt lat="50.79689" lon="5.74419">
        <ele>97</ele>
        <time>2026-09-04T12:01:51+00:00</time>
      </trkpt>
      <trkpt lat="50.79678" lon="5.74425">
        <ele>92</ele>
        <time>2026-09-04T12:01:54+00:00</time>
      </trkpt>
      <trkpt lat="50.79673" lon="5.74434">
        <ele>105</ele>
        <time>2026-09-04T12:01:57+00:00</time>
      </trkpt>
      <trkpt lat="50.79668" lon="5.74437">
        <ele>100</ele>
        <time>2026-09-04T12:02:00+00:00</time>
      </trkpt>
      <trkpt lat="50.79657" lon="5.74437">
        <ele>103</ele>
        <time>2026-09-04T12:02:03+00:00</time>
      </trkpt>
      <trkpt lat="50.79646" lon="5.74432">
        <ele>108</ele>
        <time>2026-09-04T12:02:06+00:00</time>
      </trkpt>
      <trkpt lat="50.79638" lon="5.74425">
        <ele>111</ele>
        <time>2026-09-04T12:02:09+00:00</time>
      </trkpt>
      <trkpt lat="50.79621" lon="5.7439">
        <ele>109</ele>
        <time>2026-09-04T12:02:12+00:00</time>
      </trkpt>
      <trkpt lat="50.79596" lon="5.74351">
        <ele>109</ele>
        <time>2026-09-04T12:02:15+00:00</time>
      </trkpt>
      <trkpt lat="50.79579" lon="5.7433">
        <ele>108</ele>
        <time>2026-09-04T12:02:18+00:00</time>
      </trkpt>
      <trkpt lat="50.79567" lon="5.74322">
        <ele>107</ele>
        <time>2026-09-04T12:02:21+00:00</time>
      </trkpt>
      <trkpt lat="50.79552" lon="5.74319">
        <ele>108</ele>
        <time>2026-09-04T12:02:24+00:00</time>
      </trkpt>
      <trkpt lat="50.79542" lon="5.74322">
        <ele>112</ele>
        <time>2026-09-04T12:02:27+00:00</time>
      </trkpt>
      <trkpt lat="50.79527" lon="5.74343">
        <ele>123</ele>
        <time>2026-09-04T12:02:30+00:00</time>
      </trkpt>
      <trkpt lat="50.79509" lon="5.74369">
        <ele>123</ele>
        <time>2026-09-04T12:02:33+00:00</time>
      </trkpt>
      <trkpt lat="50.79502" lon="5.74363">
        <ele>125</ele>
        <time>2026-09-04T12:02:36+00:00</time>
      </trkpt>
      <trkpt lat="50.79482" lon="5.74355">
        <ele>120</ele>
        <time>2026-09-04T12:02:39+00:00</time>
      </trkpt>
      <trkpt lat="50.79453" lon="5.74337">
        <ele>118</ele>
        <time>2026-09-04T12:02:42+00:00</time>
      </trkpt>
      <trkpt lat="50.79434" lon="5.74332">
        <ele>118</ele>
        <time>2026-09-04T12:02:45+00:00</time>
      </trkpt>
      <trkpt lat="50.79422" lon="5.74331">
        <ele>120</ele>
        <time>2026-09-04T12:02:48+00:00</time>
      </trkpt>
      <trkpt lat="50.79414" lon="5.74337">
        <ele>121</ele>
        <time>2026-09-04T12:02:51+00:00</time>
      </trkpt>
      <trkpt lat="50.794" lon="5.74362">
        <ele>125</ele>
        <time>2026-09-04T12:02:54+00:00</time>
      </trkpt>
      <trkpt lat="50.79391" lon="5.74371">
        <ele>126</ele>
        <time>2026-09-04T12:02:57+00:00</time>
      </trkpt>
      <trkpt lat="50.79383" lon="5.74374">
        <ele>125</ele>
        <time>2026-09-04T12:03:00+00:00</time>
      </trkpt>
      <trkpt lat="50.79376" lon="5.74373">
        <ele>126</ele>
        <time>2026-09-04T12:03:03+00:00</time>
      </trkpt>
      <trkpt lat="50.79367" lon="5.74369">
        <ele>125</ele>
        <time>2026-09-04T12:03:06+00:00</time>
      </trkpt>
      <trkpt lat="50.79364" lon="5.74365">
        <ele>125</ele>
        <time>2026-09-04T12:03:09+00:00</time>
      </trkpt>
      <trkpt lat="50.79355" lon="5.74338">
        <ele>125</ele>
        <time>2026-09-04T12:03:12+00:00</time>
      </trkpt>
      <trkpt lat="50.7934" lon="5.7431">
        <ele>125</ele>
        <time>2026-09-04T12:03:15+00:00</time>
      </trkpt>
      <trkpt lat="50.7933" lon="5.74298">
        <ele>125</ele>
        <time>2026-09-04T12:03:18+00:00</time>
      </trkpt>
      <trkpt lat="50.79315" lon="5.74288">
        <ele>125</ele>
        <time>2026-09-04T12:03:21+00:00</time>
      </trkpt>
      <trkpt lat="50.79292" lon="5.74277">
        <ele>125</ele>
        <time>2026-09-04T12:03:24+00:00</time>
      </trkpt>
      <trkpt lat="50.7927" lon="5.7427">
        <ele>123</ele>
        <time>2026-09-04T12:03:27+00:00</time>
      </trkpt>
      <trkpt lat="50.79245" lon="5.74262">
        <ele>122</ele>
        <time>2026-09-04T12:03:30+00:00</time>
      </trkpt>
      <trkpt lat="50.79229" lon="5.74244">
        <ele>122</ele>
        <time>2026-09-04T12:03:33+00:00</time>
      </trkpt>
      <trkpt lat="50.79221" lon="5.7424">
        <ele>122</ele>
        <time>2026-09-04T12:03:36+00:00</time>
      </trkpt>
      <trkpt lat="50.79204" lon="5.7424">
        <ele>122</ele>
        <time>2026-09-04T12:03:39+00:00</time>
      </trkpt>
      <trkpt lat="50.79162" lon="5.74248">
        <ele>123</ele>
        <time>2026-09-04T12:03:42+00:00</time>
      </trkpt>
      <trkpt lat="50.7915" lon="5.74246">
        <ele>123</ele>
        <time>2026-09-04T12:03:45+00:00</time>
      </trkpt>
      <trkpt lat="50.79135" lon="5.7424">
        <ele>123</ele>
        <time>2026-09-04T12:03:48+00:00</time>
      </trkpt>
      <trkpt lat="50.79122" lon="5.74242">
        <ele>122</ele>
        <time>2026-09-04T12:03:51+00:00</time>
      </trkpt>
      <trkpt lat="50.79126" lon="5.74286">
        <ele>118</ele>
        <time>2026-09-04T12:03:54+00:00</time>
      </trkpt>
      <trkpt lat="50.79132" lon="5.74322">
        <ele>118</ele>
        <time>2026-09-04T12:03:57+00:00</time>
      </trkpt>
      <trkpt lat="50.7914" lon="5.7436">
        <ele>119</ele>
        <time>2026-09-04T12:04:00+00:00</time>
      </trkpt>
      <trkpt lat="50.79153" lon="5.74416">
        <ele>120</ele>
        <time>2026-09-04T12:04:03+00:00</time>
      </trkpt>
      <trkpt lat="50.79162" lon="5.7445">
        <ele>122</ele>
        <time>2026-09-04T12:04:06+00:00</time>
      </trkpt>
      <trkpt lat="50.79174" lon="5.74491">
        <ele>123</ele>
        <time>2026-09-04T12:04:09+00:00</time>
      </trkpt>
      <trkpt lat="50.79182" lon="5.74525">
        <ele>124</ele>
        <time>2026-09-04T12:04:12+00:00</time>
      </trkpt>
      <trkpt lat="50.79191" lon="5.74566">
        <ele>124</ele>
        <time>2026-09-04T12:04:15+00:00</time>
      </trkpt>
      <trkpt lat="50.79199" lon="5.74607">
        <ele>125</ele>
        <time>2026-09-04T12:04:18+00:00</time>
      </trkpt>
      <trkpt lat="50.79214" lon="5.74681">
        <ele>126</ele>
        <time>2026-09-04T12:04:21+00:00</time>
      </trkpt>
      <trkpt lat="50.79223" lon="5.74724">
        <ele>127</ele>
        <time>2026-09-04T12:04:24+00:00</time>
      </trkpt>
      <trkpt lat="50.79232" lon="5.74768">
        <ele>128</ele>
        <time>2026-09-04T12:04:27+00:00</time>
      </trkpt>
      <trkpt lat="50.79243" lon="5.74817">
        <ele>129</ele>
        <time>2026-09-04T12:04:30+00:00</time>
      </trkpt>
      <trkpt lat="50.79251" lon="5.74864">
        <ele>129</ele>
        <time>2026-09-04T12:04:33+00:00</time>
      </trkpt>
      <trkpt lat="50.79259" lon="5.7491">
        <ele>129</ele>
        <time>2026-09-04T12:04:36+00:00</time>
      </trkpt>
      <trkpt lat="50.79272" lon="5.74984">
        <ele>130</ele>
        <time>2026-09-04T12:04:39+00:00</time>
      </trkpt>
      <trkpt lat="50.79281" lon="5.75042">
        <ele>130</ele>
        <time>2026-09-04T12:04:42+00:00</time>
      </trkpt>
      <trkpt lat="50.79291" lon="5.75096">
        <ele>130</ele>
        <time>2026-09-04T12:04:45+00:00</time>
      </trkpt>
      <trkpt lat="50.79302" lon="5.75149">
        <ele>130</ele>
        <time>2026-09-04T12:04:48+00:00</time>
      </trkpt>
      <trkpt lat="50.79312" lon="5.75203">
        <ele>131</ele>
        <time>2026-09-04T12:04:51+00:00</time>
      </trkpt>
      <trkpt lat="50.79323" lon="5.75257">
        <ele>131</ele>
        <time>2026-09-04T12:04:54+00:00</time>
      </trkpt>
      <trkpt lat="50.79333" lon="5.75311">
        <ele>131</ele>
        <time>2026-09-04T12:04:57+00:00</time>
      </trkpt>
      <trkpt lat="50.79344" lon="5.75366">
        <ele>132</ele>
        <time>2026-09-04T12:05:00+00:00</time>
      </trkpt>
      <trkpt lat="50.79352" lon="5.75412">
        <ele>132</ele>
        <time>2026-09-04T12:05:03+00:00</time>
      </trkpt>
      <trkpt lat="50.79357" lon="5.75449">
        <ele>132</ele>
        <time>2026-09-04T12:05:06+00:00</time>
      </trkpt>
      <trkpt lat="50.79363" lon="5.75495">
        <ele>133</ele>
        <time>2026-09-04T12:05:09+00:00</time>
      </trkpt>
      <trkpt lat="50.79368" lon="5.75544">
        <ele>133</ele>
        <time>2026-09-04T12:05:12+00:00</time>
      </trkpt>
      <trkpt lat="50.79373" lon="5.75593">
        <ele>134</ele>
        <time>2026-09-04T12:05:15+00:00</time>
      </trkpt>
      <trkpt lat="50.79382" lon="5.75681">
        <ele>134</ele>
        <time>2026-09-04T12:05:18+00:00</time>
      </trkpt>
      <trkpt lat="50.79384" lon="5.75725">
        <ele>134</ele>
        <time>2026-09-04T12:05:21+00:00</time>
      </trkpt>
      <trkpt lat="50.79388" lon="5.75809">
        <ele>134</ele>
        <time>2026-09-04T12:05:24+00:00</time>
      </trkpt>
      <trkpt lat="50.79369" lon="5.75771">
        <ele>134</ele>
        <time>2026-09-04T12:05:27+00:00</time>
      </trkpt>
      <trkpt lat="50.7935" lon="5.75733">
        <ele>134</ele>
        <time>2026-09-04T12:05:30+00:00</time>
      </trkpt>
      <trkpt lat="50.79319" lon="5.75672">
        <ele>134</ele>
        <time>2026-09-04T12:05:33+00:00</time>
      </trkpt>
      <trkpt lat="50.793" lon="5.75629">
        <ele>133</ele>
        <time>2026-09-04T12:05:36+00:00</time>
      </trkpt>
      <trkpt lat="50.7928" lon="5.75585">
        <ele>132</ele>
        <time>2026-09-04T12:05:39+00:00</time>
      </trkpt>
      <trkpt lat="50.79261" lon="5.75542">
        <ele>131</ele>
        <time>2026-09-04T12:05:42+00:00</time>
      </trkpt>
      <trkpt lat="50.79229" lon="5.7547">
        <ele>131</ele>
        <time>2026-09-04T12:05:45+00:00</time>
      </trkpt>
      <trkpt lat="50.7921" lon="5.75429">
        <ele>130</ele>
        <time>2026-09-04T12:05:48+00:00</time>
      </trkpt>
      <trkpt lat="50.79193" lon="5.75397">
        <ele>130</ele>
        <time>2026-09-04T12:05:51+00:00</time>
      </trkpt>
      <trkpt lat="50.79167" lon="5.75348">
        <ele>129</ele>
        <time>2026-09-04T12:05:54+00:00</time>
      </trkpt>
      <trkpt lat="50.79155" lon="5.7532">
        <ele>128</ele>
        <time>2026-09-04T12:05:57+00:00</time>
      </trkpt>
      <trkpt lat="50.79142" lon="5.75292">
        <ele>128</ele>
        <time>2026-09-04T12:06:00+00:00</time>
      </trkpt>
      <trkpt lat="50.79128" lon="5.75258">
        <ele>128</ele>
        <time>2026-09-04T12:06:03+00:00</time>
      </trkpt>
      <trkpt lat="50.79114" lon="5.75206">
        <ele>126</ele>
        <time>2026-09-04T12:06:06+00:00</time>
      </trkpt>
      <trkpt lat="50.79108" lon="5.75165">
        <ele>125</ele>
        <time>2026-09-04T12:06:09+00:00</time>
      </trkpt>
      <trkpt lat="50.79098" lon="5.75098">
        <ele>124</ele>
        <time>2026-09-04T12:06:12+00:00</time>
      </trkpt>
      <trkpt lat="50.79092" lon="5.75082">
        <ele>124</ele>
        <time>2026-09-04T12:06:15+00:00</time>
      </trkpt>
      <trkpt lat="50.79081" lon="5.75066">
        <ele>124</ele>
        <time>2026-09-04T12:06:18+00:00</time>
      </trkpt>
      <trkpt lat="50.79059" lon="5.75041">
        <ele>125</ele>
        <time>2026-09-04T12:06:21+00:00</time>
      </trkpt>
      <trkpt lat="50.79019" lon="5.74996">
        <ele>126</ele>
        <time>2026-09-04T12:06:24+00:00</time>
      </trkpt>
      <trkpt lat="50.78995" lon="5.74971">
        <ele>126</ele>
        <time>2026-09-04T12:06:27+00:00</time>
      </trkpt>
      <trkpt lat="50.78971" lon="5.74947">
        <ele>126</ele>
        <time>2026-09-04T12:06:30+00:00</time>
      </trkpt>
      <trkpt lat="50.78947" lon="5.74922">
        <ele>125</ele>
        <time>2026-09-04T12:06:33+00:00</time>
      </trkpt>
      <trkpt lat="50.78934" lon="5.74912">
        <ele>125</ele>
        <time>2026-09-04T12:06:36+00:00</time>
      </trkpt>
      <trkpt lat="50.78915" lon="5.74903">
        <ele>124</ele>
        <time>2026-09-04T12:06:39+00:00</time>
      </trkpt>
      <trkpt lat="50.78887" lon="5.74889">
        <ele>122</ele>
        <time>2026-09-04T12:06:42+00:00</time>
      </trkpt>
      <trkpt lat="50.78864" lon="5.74876">
        <ele>121</ele>
        <time>2026-09-04T12:06:45+00:00</time>
      </trkpt>
      <trkpt lat="50.78836" lon="5.74853">
        <ele>120</ele>
        <time>2026-09-04T12:06:48+00:00</time>
      </trkpt>
      <trkpt lat="50.78822" lon="5.74835">
        <ele>120</ele>
        <time>2026-09-04T12:06:51+00:00</time>
      </trkpt>
      <trkpt lat="50.78802" lon="5.74819">
        <ele>119</ele>
        <time>2026-09-04T12:06:54+00:00</time>
      </trkpt>
      <trkpt lat="50.78778" lon="5.74801">
        <ele>117</ele>
        <time>2026-09-04T12:06:57+00:00</time>
      </trkpt>
      <trkpt lat="50.78744" lon="5.74786">
        <ele>114</ele>
        <time>2026-09-04T12:07:00+00:00</time>
      </trkpt>
      <trkpt lat="50.78757" lon="5.74814">
        <ele>114</ele>
        <time>2026-09-04T12:07:03+00:00</time>
      </trkpt>
      <trkpt lat="50.78773" lon="5.74838">
        <ele>114</ele>
        <time>2026-09-04T12:07:06+00:00</time>
      </trkpt>
      <trkpt lat="50.78792" lon="5.74865">
        <ele>115</ele>
        <time>2026-09-04T12:07:09+00:00</time>
      </trkpt>
      <trkpt lat="50.78813" lon="5.74908">
        <ele>116</ele>
        <time>2026-09-04T12:07:12+00:00</time>
      </trkpt>
      <trkpt lat="50.7882" lon="5.74915">
        <ele>117</ele>
        <time>2026-09-04T12:07:15+00:00</time>
      </trkpt>
      <trkpt lat="50.78841" lon="5.74926">
        <ele>119</ele>
        <time>2026-09-04T12:07:18+00:00</time>
      </trkpt>
      <trkpt lat="50.78849" lon="5.74936">
        <ele>118</ele>
        <time>2026-09-04T12:07:21+00:00</time>
      </trkpt>
      <trkpt lat="50.78858" lon="5.74965">
        <ele>119</ele>
        <time>2026-09-04T12:07:24+00:00</time>
      </trkpt>
      <trkpt lat="50.78864" lon="5.74979">
        <ele>119</ele>
        <time>2026-09-04T12:07:27+00:00</time>
      </trkpt>
      <trkpt lat="50.78874" lon="5.74998">
        <ele>119</ele>
        <time>2026-09-04T12:07:30+00:00</time>
      </trkpt>
      <trkpt lat="50.78885" lon="5.75017">
        <ele>119</ele>
        <time>2026-09-04T12:07:33+00:00</time>
      </trkpt>
      <trkpt lat="50.78911" lon="5.75054">
        <ele>120</ele>
        <time>2026-09-04T12:07:36+00:00</time>
      </trkpt>
      <trkpt lat="50.78917" lon="5.75066">
        <ele>120</ele>
        <time>2026-09-04T12:07:39+00:00</time>
      </trkpt>
      <trkpt lat="50.78926" lon="5.751">
        <ele>122</ele>
        <time>2026-09-04T12:07:42+00:00</time>
      </trkpt>
      <trkpt lat="50.78929" lon="5.75128">
        <ele>123</ele>
        <time>2026-09-04T12:07:45+00:00</time>
      </trkpt>
      <trkpt lat="50.78925" lon="5.75159">
        <ele>123</ele>
        <time>2026-09-04T12:07:48+00:00</time>
      </trkpt>
      <trkpt lat="50.78915" lon="5.7521">
        <ele>123</ele>
        <time>2026-09-04T12:07:51+00:00</time>
      </trkpt>
      <trkpt lat="50.78915" lon="5.7522">
        <ele>122</ele>
        <time>2026-09-04T12:07:54+00:00</time>
      </trkpt>
      <trkpt lat="50.78923" lon="5.75268">
        <ele>124</ele>
        <time>2026-09-04T12:07:57+00:00</time>
      </trkpt>
      <trkpt lat="50.78931" lon="5.75268">
        <ele>125</ele>
        <time>2026-09-04T12:08:00+00:00</time>
      </trkpt>
      <trkpt lat="50.78939" lon="5.75259">
        <ele>125</ele>
        <time>2026-09-04T12:08:03+00:00</time>
      </trkpt>
      <trkpt lat="50.78953" lon="5.75255">
        <ele>130</ele>
        <time>2026-09-04T12:08:06+00:00</time>
      </trkpt>
      <trkpt lat="50.78965" lon="5.75258">
        <ele>127</ele>
        <time>2026-09-04T12:08:09+00:00</time>
      </trkpt>
      <trkpt lat="50.78972" lon="5.75267">
        <ele>131</ele>
        <time>2026-09-04T12:08:12+00:00</time>
      </trkpt>
      <trkpt lat="50.78975" lon="5.75276">
        <ele>132</ele>
        <time>2026-09-04T12:08:15+00:00</time>
      </trkpt>
      <trkpt lat="50.78969" lon="5.75311">
        <ele>129</ele>
        <time>2026-09-04T12:08:18+00:00</time>
      </trkpt>
      <trkpt lat="50.7897" lon="5.75324">
        <ele>131</ele>
        <time>2026-09-04T12:08:21+00:00</time>
      </trkpt>
      <trkpt lat="50.78974" lon="5.75332">
        <ele>130</ele>
        <time>2026-09-04T12:08:24+00:00</time>
      </trkpt>
      <trkpt lat="50.78985" lon="5.75349">
        <ele>132</ele>
        <time>2026-09-04T12:08:27+00:00</time>
      </trkpt>
      <trkpt lat="50.78996" lon="5.75368">
        <ele>133</ele>
        <time>2026-09-04T12:08:30+00:00</time>
      </trkpt>
      <trkpt lat="50.78999" lon="5.75375">
        <ele>134</ele>
        <time>2026-09-04T12:08:33+00:00</time>
      </trkpt>
      <trkpt lat="50.78992" lon="5.75404">
        <ele>133</ele>
        <time>2026-09-04T12:08:36+00:00</time>
      </trkpt>
      <trkpt lat="50.78977" lon="5.75452">
        <ele>134</ele>
        <time>2026-09-04T12:08:39+00:00</time>
      </trkpt>
      <trkpt lat="50.78972" lon="5.75485">
        <ele>134</ele>
        <time>2026-09-04T12:08:42+00:00</time>
      </trkpt>
      <trkpt lat="50.78974" lon="5.7552">
        <ele>131</ele>
        <time>2026-09-04T12:08:45+00:00</time>
      </trkpt>
      <trkpt lat="50.78976" lon="5.75559">
        <ele>130</ele>
        <time>2026-09-04T12:08:48+00:00</time>
      </trkpt>
      <trkpt lat="50.78972" lon="5.75607">
        <ele>122</ele>
        <time>2026-09-04T12:08:51+00:00</time>
      </trkpt>
      <trkpt lat="50.78972" lon="5.75635">
        <ele>116</ele>
        <time>2026-09-04T12:08:54+00:00</time>
      </trkpt>
      <trkpt lat="50.78978" lon="5.75692">
        <ele>113</ele>
        <time>2026-09-04T12:08:57+00:00</time>
      </trkpt>
      <trkpt lat="50.78977" lon="5.75719">
        <ele>111</ele>
        <time>2026-09-04T12:09:00+00:00</time>
      </trkpt>
      <trkpt lat="50.78972" lon="5.75738">
        <ele>110</ele>
        <time>2026-09-04T12:09:03+00:00</time>
      </trkpt>
      <trkpt lat="50.78967" lon="5.75749">
        <ele>105</ele>
        <time>2026-09-04T12:09:06+00:00</time>
      </trkpt>
      <trkpt lat="50.7896" lon="5.75749">
        <ele>105</ele>
        <time>2026-09-04T12:09:09+00:00</time>
      </trkpt>
      <trkpt lat="50.78947" lon="5.75744">
        <ele>100</ele>
        <time>2026-09-04T12:09:12+00:00</time>
      </trkpt>
      <trkpt lat="50.78941" lon="5.7574">
        <ele>99</ele>
        <time>2026-09-04T12:09:15+00:00</time>
      </trkpt>
      <trkpt lat="50.78942" lon="5.75717">
        <ele>98</ele>
        <time>2026-09-04T12:09:18+00:00</time>
      </trkpt>
      <trkpt lat="50.78947" lon="5.75698">
        <ele>96</ele>
        <time>2026-09-04T12:09:21+00:00</time>
      </trkpt>
      <trkpt lat="50.78944" lon="5.75674">
        <ele>96</ele>
        <time>2026-09-04T12:09:24+00:00</time>
      </trkpt>
      <trkpt lat="50.7894" lon="5.75649">
        <ele>95</ele>
        <time>2026-09-04T12:09:27+00:00</time>
      </trkpt>
      <trkpt lat="50.78933" lon="5.75606">
        <ele>98</ele>
        <time>2026-09-04T12:09:30+00:00</time>
      </trkpt>
      <trkpt lat="50.78921" lon="5.75526">
        <ele>98</ele>
        <time>2026-09-04T12:09:33+00:00</time>
      </trkpt>
      <trkpt lat="50.78913" lon="5.75491">
        <ele>98</ele>
        <time>2026-09-04T12:09:36+00:00</time>
      </trkpt>
      <trkpt lat="50.78911" lon="5.75429">
        <ele>98</ele>
        <time>2026-09-04T12:09:39+00:00</time>
      </trkpt>
      <trkpt lat="50.78901" lon="5.75393">
        <ele>93</ele>
        <time>2026-09-04T12:09:42+00:00</time>
      </trkpt>
      <trkpt lat="50.78889" lon="5.75329">
        <ele>101</ele>
        <time>2026-09-04T12:09:45+00:00</time>
      </trkpt>
      <trkpt lat="50.7889" lon="5.75323">
        <ele>98</ele>
        <time>2026-09-04T12:09:48+00:00</time>
      </trkpt>
      <trkpt lat="50.78894" lon="5.75315">
        <ele>97</ele>
        <time>2026-09-04T12:09:51+00:00</time>
      </trkpt>
      <trkpt lat="50.78907" lon="5.75298">
        <ele>110</ele>
        <time>2026-09-04T12:09:54+00:00</time>
      </trkpt>
      <trkpt lat="50.78921" lon="5.75281">
        <ele>114</ele>
        <time>2026-09-04T12:09:57+00:00</time>
      </trkpt>
      <trkpt lat="50.78923" lon="5.75274">
        <ele>120</ele>
        <time>2026-09-04T12:10:00+00:00</time>
      </trkpt>
      <trkpt lat="50.78922" lon="5.75263">
        <ele>121</ele>
        <time>2026-09-04T12:10:03+00:00</time>
      </trkpt>
      <trkpt lat="50.78918" lon="5.75266">
        <ele>118</ele>
        <time>2026-09-04T12:10:06+00:00</time>
      </trkpt>
      <trkpt lat="50.78912" lon="5.75264">
        <ele>112</ele>
        <time>2026-09-04T12:10:09+00:00</time>
      </trkpt>
      <trkpt lat="50.78903" lon="5.75258">
        <ele>116</ele>
        <time>2026-09-04T12:10:12+00:00</time>
      </trkpt>
      <trkpt lat="50.78887" lon="5.75231">
        <ele>111</ele>
        <time>2026-09-04T12:10:15+00:00</time>
      </trkpt>
      <trkpt lat="50.7888" lon="5.75212">
        <ele>113</ele>
        <time>2026-09-04T12:10:18+00:00</time>
      </trkpt>
      <trkpt lat="50.7887" lon="5.75196">
        <ele>111</ele>
        <time>2026-09-04T12:10:21+00:00</time>
      </trkpt>
      <trkpt lat="50.78866" lon="5.75191">
        <ele>108</ele>
        <time>2026-09-04T12:10:24+00:00</time>
      </trkpt>
      <trkpt lat="50.7885" lon="5.75184">
        <ele>106</ele>
        <time>2026-09-04T12:10:27+00:00</time>
      </trkpt>
      <trkpt lat="50.78842" lon="5.75176">
        <ele>104</ele>
        <time>2026-09-04T12:10:30+00:00</time>
      </trkpt>
      <trkpt lat="50.78828" lon="5.75147">
        <ele>100</ele>
        <time>2026-09-04T12:10:33+00:00</time>
      </trkpt>
      <trkpt lat="50.78807" lon="5.7512">
        <ele>98</ele>
        <time>2026-09-04T12:10:36+00:00</time>
      </trkpt>
      <trkpt lat="50.78794" lon="5.75107">
        <ele>99</ele>
        <time>2026-09-04T12:10:39+00:00</time>
      </trkpt>
      <trkpt lat="50.78774" lon="5.7508">
        <ele>99</ele>
        <time>2026-09-04T12:10:42+00:00</time>
      </trkpt>
      <trkpt lat="50.78767" lon="5.75068">
        <ele>97</ele>
        <time>2026-09-04T12:10:45+00:00</time>
      </trkpt>
      <trkpt lat="50.78761" lon="5.75037">
        <ele>100</ele>
        <time>2026-09-04T12:10:48+00:00</time>
      </trkpt>
      <trkpt lat="50.78752" lon="5.74995">
        <ele>101</ele>
        <time>2026-09-04T12:10:51+00:00</time>
      </trkpt>
      <trkpt lat="50.78742" lon="5.74964">
        <ele>101</ele>
        <time>2026-09-04T12:10:54+00:00</time>
      </trkpt>
      <trkpt lat="50.78734" lon="5.74933">
        <ele>101</ele>
        <time>2026-09-04T12:10:57+00:00</time>
      </trkpt>
      <trkpt lat="50.78733" lon="5.749">
        <ele>103</ele>
        <time>2026-09-04T12:11:00+00:00</time>
      </trkpt>
      <trkpt lat="50.78727" lon="5.74886">
        <ele>102</ele>
        <time>2026-09-04T12:11:03+00:00</time>
      </trkpt>
      <trkpt lat="50.78723" lon="5.74858">
        <ele>105</ele>
        <time>2026-09-04T12:11:06+00:00</time>
      </trkpt>
      <trkpt lat="50.78722" lon="5.74844">
        <ele>106</ele>
        <time>2026-09-04T12:11:09+00:00</time>
      </trkpt>
      <trkpt lat="50.78722" lon="5.74827">
        <ele>107</ele>
        <time>2026-09-04T12:11:12+00:00</time>
      </trkpt>
      <trkpt lat="50.78717" lon="5.7481">
        <ele>107</ele>
        <time>2026-09-04T12:11:15+00:00</time>
      </trkpt>
      <trkpt lat="50.7871" lon="5.74795">
        <ele>109</ele>
        <time>2026-09-04T12:11:18+00:00</time>
      </trkpt>
      <trkpt lat="50.78708" lon="5.74776">
        <ele>109</ele>
        <time>2026-09-04T12:11:21+00:00</time>
      </trkpt>
      <trkpt lat="50.78709" lon="5.74765">
        <ele>108</ele>
        <time>2026-09-04T12:11:24+00:00</time>
      </trkpt>
      <trkpt lat="50.78683" lon="5.74752">
        <ele>108</ele>
        <time>2026-09-04T12:11:27+00:00</time>
      </trkpt>
      <trkpt lat="50.78674" lon="5.74745">
        <ele>108</ele>
        <time>2026-09-04T12:11:30+00:00</time>
      </trkpt>
      <trkpt lat="50.78654" lon="5.7472">
        <ele>108</ele>
        <time>2026-09-04T12:11:33+00:00</time>
      </trkpt>
      <trkpt lat="50.78635" lon="5.74704">
        <ele>108</ele>
        <time>2026-09-04T12:11:36+00:00</time>
      </trkpt>
      <trkpt lat="50.78616" lon="5.74688">
        <ele>108</ele>
        <time>2026-09-04T12:11:39+00:00</time>
      </trkpt>
      <trkpt lat="50.78593" lon="5.74666">
        <ele>106</ele>
        <time>2026-09-04T12:11:42+00:00</time>
      </trkpt>
      <trkpt lat="50.78555" lon="5.74628">
        <ele>101</ele>
        <time>2026-09-04T12:11:45+00:00</time>
      </trkpt>
      <trkpt lat="50.78533" lon="5.74598">
        <ele>99</ele>
        <time>2026-09-04T12:11:48+00:00</time>
      </trkpt>
      <trkpt lat="50.7851" lon="5.74569">
        <ele>98</ele>
        <time>2026-09-04T12:11:51+00:00</time>
      </trkpt>
      <trkpt lat="50.78484" lon="5.74534">
        <ele>93</ele>
        <time>2026-09-04T12:11:54+00:00</time>
      </trkpt>
      <trkpt lat="50.78466" lon="5.74508">
        <ele>88</ele>
        <time>2026-09-04T12:11:57+00:00</time>
      </trkpt>
      <trkpt lat="50.78449" lon="5.74473">
        <ele>82</ele>
        <time>2026-09-04T12:12:00+00:00</time>
      </trkpt>
      <trkpt lat="50.78437" lon="5.74431">
        <ele>81</ele>
        <time>2026-09-04T12:12:03+00:00</time>
      </trkpt>
      <trkpt lat="50.78438" lon="5.74425">
        <ele>77</ele>
        <time>2026-09-04T12:12:06+00:00</time>
      </trkpt>
      <trkpt lat="50.78435" lon="5.74373">
        <ele>80</ele>
        <time>2026-09-04T12:12:09+00:00</time>
      </trkpt>
      <trkpt lat="50.78436" lon="5.74325">
        <ele>81</ele>
        <time>2026-09-04T12:12:12+00:00</time>
      </trkpt>
      <trkpt lat="50.7844" lon="5.74307">
        <ele>81</ele>
        <time>2026-09-04T12:12:15+00:00</time>
      </trkpt>
      <trkpt lat="50.78453" lon="5.74271">
        <ele>80</ele>
        <time>2026-09-04T12:12:18+00:00</time>
      </trkpt>
      <trkpt lat="50.78457" lon="5.74241">
        <ele>80</ele>
        <time>2026-09-04T12:12:21+00:00</time>
      </trkpt>
      <trkpt lat="50.78457" lon="5.74207">
        <ele>78</ele>
        <time>2026-09-04T12:12:24+00:00</time>
      </trkpt>
      <trkpt lat="50.7846" lon="5.74171">
        <ele>80</ele>
        <time>2026-09-04T12:12:27+00:00</time>
      </trkpt>
      <trkpt lat="50.78463" lon="5.74127">
        <ele>82</ele>
        <time>2026-09-04T12:12:30+00:00</time>
      </trkpt>
      <trkpt lat="50.78467" lon="5.741">
        <ele>82</ele>
        <time>2026-09-04T12:12:33+00:00</time>
      </trkpt>
      <trkpt lat="50.78473" lon="5.74076">
        <ele>82</ele>
        <time>2026-09-04T12:12:36+00:00</time>
      </trkpt>
      <trkpt lat="50.78476" lon="5.74037">
        <ele>72</ele>
        <time>2026-09-04T12:12:39+00:00</time>
      </trkpt>
      <trkpt lat="50.78474" lon="5.73995">
        <ele>72</ele>
        <time>2026-09-04T12:12:42+00:00</time>
      </trkpt>
      <trkpt lat="50.78478" lon="5.73963">
        <ele>73</ele>
        <time>2026-09-04T12:12:45+00:00</time>
      </trkpt>
      <trkpt lat="50.78481" lon="5.73923">
        <ele>75</ele>
        <time>2026-09-04T12:12:48+00:00</time>
      </trkpt>
      <trkpt lat="50.78485" lon="5.73862">
        <ele>78</ele>
        <time>2026-09-04T12:12:51+00:00</time>
      </trkpt>
      <trkpt lat="50.78494" lon="5.7383">
        <ele>78</ele>
        <time>2026-09-04T12:12:54+00:00</time>
      </trkpt>
      <trkpt lat="50.78504" lon="5.73797">
        <ele>79</ele>
        <time>2026-09-04T12:12:57+00:00</time>
      </trkpt>
      <trkpt lat="50.78509" lon="5.73788">
        <ele>78</ele>
        <time>2026-09-04T12:13:00+00:00</time>
      </trkpt>
      <trkpt lat="50.78526" lon="5.73765">
        <ele>79</ele>
        <time>2026-09-04T12:13:03+00:00</time>
      </trkpt>
      <trkpt lat="50.78551" lon="5.73732">
        <ele>79</ele>
        <time>2026-09-04T12:13:06+00:00</time>
      </trkpt>
      <trkpt lat="50.78571" lon="5.73712">
        <ele>77</ele>
        <time>2026-09-04T12:13:09+00:00</time>
      </trkpt>
      <trkpt lat="50.78598" lon="5.73686">
        <ele>74</ele>
        <time>2026-09-04T12:13:12+00:00</time>
      </trkpt>
      <trkpt lat="50.78608" lon="5.73679">
        <ele>74</ele>
        <time>2026-09-04T12:13:15+00:00</time>
      </trkpt>
      <trkpt lat="50.78611" lon="5.73668">
        <ele>73</ele>
        <time>2026-09-04T12:13:18+00:00</time>
      </trkpt>
      <trkpt lat="50.78618" lon="5.7366">
        <ele>73</ele>
        <time>2026-09-04T12:13:21+00:00</time>
      </trkpt>
      <trkpt lat="50.78628" lon="5.73657">
        <ele>75</ele>
        <time>2026-09-04T12:13:24+00:00</time>
      </trkpt>
      <trkpt lat="50.78634" lon="5.73657">
        <ele>74</ele>
        <time>2026-09-04T12:13:27+00:00</time>
      </trkpt>
      <trkpt lat="50.78664" lon="5.73666">
        <ele>78</ele>
        <time>2026-09-04T12:13:30+00:00</time>
      </trkpt>
      <trkpt lat="50.78702" lon="5.73691">
        <ele>85</ele>
        <time>2026-09-04T12:13:33+00:00</time>
      </trkpt>
      <trkpt lat="50.78727" lon="5.73692">
        <ele>85</ele>
        <time>2026-09-04T12:13:36+00:00</time>
      </trkpt>
      <trkpt lat="50.78749" lon="5.73699">
        <ele>88</ele>
        <time>2026-09-04T12:13:39+00:00</time>
      </trkpt>
      <trkpt lat="50.78773" lon="5.73707">
        <ele>92</ele>
        <time>2026-09-04T12:13:42+00:00</time>
      </trkpt>
      <trkpt lat="50.78796" lon="5.73726">
        <ele>100</ele>
        <time>2026-09-04T12:13:45+00:00</time>
      </trkpt>
      <trkpt lat="50.78833" lon="5.73755">
        <ele>107</ele>
        <time>2026-09-04T12:13:48+00:00</time>
      </trkpt>
      <trkpt lat="50.78854" lon="5.73783">
        <ele>109</ele>
        <time>2026-09-04T12:13:51+00:00</time>
      </trkpt>
      <trkpt lat="50.78835" lon="5.73786">
        <ele>115</ele>
        <time>2026-09-04T12:13:54+00:00</time>
      </trkpt>
      <trkpt lat="50.78801" lon="5.73797">
        <ele>116</ele>
        <time>2026-09-04T12:13:57+00:00</time>
      </trkpt>
      <trkpt lat="50.7878" lon="5.73811">
        <ele>119</ele>
        <time>2026-09-04T12:14:00+00:00</time>
      </trkpt>
      <trkpt lat="50.78757" lon="5.73828">
        <ele>121</ele>
        <time>2026-09-04T12:14:03+00:00</time>
      </trkpt>
      <trkpt lat="50.78753" lon="5.73831">
        <ele>122</ele>
        <time>2026-09-04T12:14:06+00:00</time>
      </trkpt>
      <trkpt lat="50.78735" lon="5.73859">
        <ele>124</ele>
        <time>2026-09-04T12:14:09+00:00</time>
      </trkpt>
      <trkpt lat="50.78714" lon="5.73877">
        <ele>124</ele>
        <time>2026-09-04T12:14:12+00:00</time>
      </trkpt>
      <trkpt lat="50.78688" lon="5.739">
        <ele>125</ele>
        <time>2026-09-04T12:14:15+00:00</time>
      </trkpt>
      <trkpt lat="50.78679" lon="5.73912">
        <ele>125</ele>
        <time>2026-09-04T12:14:18+00:00</time>
      </trkpt>
      <trkpt lat="50.78707" lon="5.73916">
        <ele>127</ele>
        <time>2026-09-04T12:14:21+00:00</time>
      </trkpt>
      <trkpt lat="50.78728" lon="5.73913">
        <ele>128</ele>
        <time>2026-09-04T12:14:24+00:00</time>
      </trkpt>
      <trkpt lat="50.78745" lon="5.73918">
        <ele>128</ele>
        <time>2026-09-04T12:14:27+00:00</time>
      </trkpt>
      <trkpt lat="50.78763" lon="5.73929">
        <ele>130</ele>
        <time>2026-09-04T12:14:30+00:00</time>
      </trkpt>
      <trkpt lat="50.78798" lon="5.73929">
        <ele>132</ele>
        <time>2026-09-04T12:14:33+00:00</time>
      </trkpt>
      <trkpt lat="50.78822" lon="5.73941">
        <ele>132</ele>
        <time>2026-09-04T12:14:36+00:00</time>
      </trkpt>
      <trkpt lat="50.78858" lon="5.73959">
        <ele>133</ele>
        <time>2026-09-04T12:14:39+00:00</time>
      </trkpt>
      <trkpt lat="50.78891" lon="5.73965">
        <ele>133</ele>
        <time>2026-09-04T12:14:42+00:00</time>
      </trkpt>
      <trkpt lat="50.78929" lon="5.73991">
        <ele>133</ele>
        <time>2026-09-04T12:14:45+00:00</time>
      </trkpt>
      <trkpt lat="50.7895" lon="5.74002">
        <ele>130</ele>
        <time>2026-09-04T12:14:48+00:00</time>
      </trkpt>
      <trkpt lat="50.7897" lon="5.74019">
        <ele>129</ele>
        <time>2026-09-04T12:14:51+00:00</time>
      </trkpt>
      <trkpt lat="50.78991" lon="5.74038">
        <ele>128</ele>
        <time>2026-09-04T12:14:54+00:00</time>
      </trkpt>
      <trkpt lat="50.79016" lon="5.74047">
        <ele>128</ele>
        <time>2026-09-04T12:14:57+00:00</time>
      </trkpt>
      <trkpt lat="50.79027" lon="5.74054">
        <ele>127</ele>
        <time>2026-09-04T12:15:00+00:00</time>
      </trkpt>
      <trkpt lat="50.79039" lon="5.7407">
        <ele>127</ele>
        <time>2026-09-04T12:15:03+00:00</time>
      </trkpt>
      <trkpt lat="50.79051" lon="5.74086">
        <ele>127</ele>
        <time>2026-09-04T12:15:06+00:00</time>
      </trkpt>
      <trkpt lat="50.79067" lon="5.74119">
        <ele>129</ele>
        <time>2026-09-04T12:15:09+00:00</time>
      </trkpt>
      <trkpt lat="50.79081" lon="5.74141">
        <ele>129</ele>
        <time>2026-09-04T12:15:12+00:00</time>
      </trkpt>
      <trkpt lat="50.79069" lon="5.74091">
        <ele>129</ele>
        <time>2026-09-04T12:15:15+00:00</time>
      </trkpt>
      <trkpt lat="50.79061" lon="5.74042">
        <ele>127</ele>
        <time>2026-09-04T12:15:18+00:00</time>
      </trkpt>
      <trkpt lat="50.79055" lon="5.73986">
        <ele>122</ele>
        <time>2026-09-04T12:15:21+00:00</time>
      </trkpt>
      <trkpt lat="50.79051" lon="5.73969">
        <ele>118</ele>
        <time>2026-09-04T12:15:24+00:00</time>
      </trkpt>
      <trkpt lat="50.79038" lon="5.73943">
        <ele>120</ele>
        <time>2026-09-04T12:15:27+00:00</time>
      </trkpt>
      <trkpt lat="50.7902" lon="5.73906">
        <ele>116</ele>
        <time>2026-09-04T12:15:30+00:00</time>
      </trkpt>
      <trkpt lat="50.79003" lon="5.73881">
        <ele>116</ele>
        <time>2026-09-04T12:15:33+00:00</time>
      </trkpt>
      <trkpt lat="50.78984" lon="5.73853">
        <ele>114</ele>
        <time>2026-09-04T12:15:36+00:00</time>
      </trkpt>
      <trkpt lat="50.78966" lon="5.73833">
        <ele>114</ele>
        <time>2026-09-04T12:15:39+00:00</time>
      </trkpt>
      <trkpt lat="50.78948" lon="5.73812">
        <ele>113</ele>
        <time>2026-09-04T12:15:42+00:00</time>
      </trkpt>
      <trkpt lat="50.78947" lon="5.73803">
        <ele>110</ele>
        <time>2026-09-04T12:15:45+00:00</time>
      </trkpt>
      <trkpt lat="50.78955" lon="5.73795">
        <ele>107</ele>
        <time>2026-09-04T12:15:48+00:00</time>
      </trkpt>
      <trkpt lat="50.78966" lon="5.73789">
        <ele>104</ele>
        <time>2026-09-04T12:15:51+00:00</time>
      </trkpt>
      <trkpt lat="50.78981" lon="5.73788">
        <ele>101</ele>
        <time>2026-09-04T12:15:54+00:00</time>
      </trkpt>
      <trkpt lat="50.78995" lon="5.73784">
        <ele>99</ele>
        <time>2026-09-04T12:15:57+00:00</time>
      </trkpt>
      <trkpt lat="50.79014" lon="5.73766">
        <ele>92</ele>
        <time>2026-09-04T12:16:00+00:00</time>
      </trkpt>
      <trkpt lat="50.79036" lon="5.73745">
        <ele>85</ele>
        <time>2026-09-04T12:16:03+00:00</time>
      </trkpt>
      <trkpt lat="50.79066" lon="5.73707">
        <ele>77</ele>
        <time>2026-09-04T12:16:06+00:00</time>
      </trkpt>
      <trkpt lat="50.79083" lon="5.73689">
        <ele>76</ele>
        <time>2026-09-04T12:16:09+00:00</time>
      </trkpt>
      <trkpt lat="50.79092" lon="5.73685">
        <ele>75</ele>
        <time>2026-09-04T12:16:12+00:00</time>
      </trkpt>
      <trkpt lat="50.79109" lon="5.73681">
        <ele>76</ele>
        <time>2026-09-04T12:16:15+00:00</time>
      </trkpt>
      <trkpt lat="50.79119" lon="5.73677">
        <ele>75</ele>
        <time>2026-09-04T12:16:18+00:00</time>
      </trkpt>
      <trkpt lat="50.79134" lon="5.73664">
        <ele>75</ele>
        <time>2026-09-04T12:16:21+00:00</time>
      </trkpt>
      <trkpt lat="50.7915" lon="5.73649">
        <ele>73</ele>
        <time>2026-09-04T12:16:24+00:00</time>
      </trkpt>
      <trkpt lat="50.79158" lon="5.7364">
        <ele>74</ele>
        <time>2026-09-04T12:16:27+00:00</time>
      </trkpt>
      <trkpt lat="50.79172" lon="5.73617">
        <ele>72</ele>
        <time>2026-09-04T12:16:30+00:00</time>
      </trkpt>
      <trkpt lat="50.79178" lon="5.73594">
        <ele>71</ele>
        <time>2026-09-04T12:16:33+00:00</time>
      </trkpt>
      <trkpt lat="50.79183" lon="5.73563">
        <ele>69</ele>
        <time>2026-09-04T12:16:36+00:00</time>
      </trkpt>
      <trkpt lat="50.79184" lon="5.73543">
        <ele>68</ele>
        <time>2026-09-04T12:16:39+00:00</time>
      </trkpt>
      <trkpt lat="50.79183" lon="5.73508">
        <ele>64</ele>
        <time>2026-09-04T12:16:42+00:00</time>
      </trkpt>
      <trkpt lat="50.79182" lon="5.7345">
        <ele>62</ele>
        <time>2026-09-04T12:16:45+00:00</time>
      </trkpt>
      <trkpt lat="50.79184" lon="5.73433">
        <ele>61</ele>
        <time>2026-09-04T12:16:48+00:00</time>
      </trkpt>
      <trkpt lat="50.79192" lon="5.73393">
        <ele>61</ele>
        <time>2026-09-04T12:16:51+00:00</time>
      </trkpt>
      <trkpt lat="50.792" lon="5.73352">
        <ele>60</ele>
        <time>2026-09-04T12:16:54+00:00</time>
      </trkpt>
      <trkpt lat="50.79211" lon="5.73297">
        <ele>60</ele>
        <time>2026-09-04T12:16:57+00:00</time>
      </trkpt>
      <trkpt lat="50.79215" lon="5.73283">
        <ele>60</ele>
        <time>2026-09-04T12:17:00+00:00</time>
      </trkpt>
      <trkpt lat="50.7922" lon="5.73279">
        <ele>60</ele>
        <time>2026-09-04T12:17:03+00:00</time>
      </trkpt>
      <trkpt lat="50.79243" lon="5.73268">
        <ele>60</ele>
        <time>2026-09-04T12:17:06+00:00</time>
      </trkpt>
      <trkpt lat="50.79266" lon="5.73257">
        <ele>60</ele>
        <time>2026-09-04T12:17:09+00:00</time>
      </trkpt>
      <trkpt lat="50.79292" lon="5.73244">
        <ele>60</ele>
        <time>2026-09-04T12:17:12+00:00</time>
      </trkpt>
      <trkpt lat="50.79322" lon="5.73233">
        <ele>60</ele>
        <time>2026-09-04T12:17:15+00:00</time>
      </trkpt>
      <trkpt lat="50.79352" lon="5.73227">
        <ele>60</ele>
        <time>2026-09-04T12:17:18+00:00</time>
      </trkpt>
      <trkpt lat="50.79382" lon="5.73225">
        <ele>60</ele>
        <time>2026-09-04T12:17:21+00:00</time>
      </trkpt>
      <trkpt lat="50.79412" lon="5.73223">
        <ele>60</ele>
        <time>2026-09-04T12:17:24+00:00</time>
      </trkpt>
      <trkpt lat="50.79452" lon="5.7322">
        <ele>59</ele>
        <time>2026-09-04T12:17:27+00:00</time>
      </trkpt>
      <trkpt lat="50.79453" lon="5.73259">
        <ele>59</ele>
        <time>2026-09-04T12:17:30+00:00</time>
      </trkpt>
      <trkpt lat="50.79454" lon="5.73315">
        <ele>59</ele>
        <time>2026-09-04T12:17:33+00:00</time>
      </trkpt>
      <trkpt lat="50.79454" lon="5.73349">
        <ele>59</ele>
        <time>2026-09-04T12:17:36+00:00</time>
      </trkpt>
      <trkpt lat="50.79454" lon="5.73383">
        <ele>60</ele>
        <time>2026-09-04T12:17:39+00:00</time>
      </trkpt>
      <trkpt lat="50.79452" lon="5.73405">
        <ele>61</ele>
        <time>2026-09-04T12:17:42+00:00</time>
      </trkpt>
      <trkpt lat="50.79442" lon="5.73449">
        <ele>62</ele>
        <time>2026-09-04T12:17:45+00:00</time>
      </trkpt>
      <trkpt lat="50.79433" lon="5.73493">
        <ele>63</ele>
        <time>2026-09-04T12:17:48+00:00</time>
      </trkpt>
      <trkpt lat="50.79423" lon="5.73537">
        <ele>63</ele>
        <time>2026-09-04T12:17:51+00:00</time>
      </trkpt>
      <trkpt lat="50.79411" lon="5.73593">
        <ele>63</ele>
        <time>2026-09-04T12:17:54+00:00</time>
      </trkpt>
      <trkpt lat="50.79437" lon="5.7361">
        <ele>62</ele>
        <time>2026-09-04T12:17:57+00:00</time>
      </trkpt>
      <trkpt lat="50.79463" lon="5.73627">
        <ele>62</ele>
        <time>2026-09-04T12:18:00+00:00</time>
      </trkpt>
      <trkpt lat="50.7949" lon="5.73645">
        <ele>63</ele>
        <time>2026-09-04T12:18:03+00:00</time>
      </trkpt>
      <trkpt lat="50.79511" lon="5.73654">
        <ele>65</ele>
        <time>2026-09-04T12:18:06+00:00</time>
      </trkpt>
      <trkpt lat="50.79534" lon="5.73663">
        <ele>65</ele>
        <time>2026-09-04T12:18:09+00:00</time>
      </trkpt>
      <trkpt lat="50.7956" lon="5.73665">
        <ele>65</ele>
        <time>2026-09-04T12:18:12+00:00</time>
      </trkpt>
      <trkpt lat="50.796" lon="5.73668">
        <ele>66</ele>
        <time>2026-09-04T12:18:15+00:00</time>
      </trkpt>
      <trkpt lat="50.79605" lon="5.73666">
        <ele>66</ele>
        <time>2026-09-04T12:18:18+00:00</time>
      </trkpt>
      <trkpt lat="50.79623" lon="5.7368">
        <ele>66</ele>
        <time>2026-09-04T12:18:21+00:00</time>
      </trkpt>
      <trkpt lat="50.79643" lon="5.73696">
        <ele>66</ele>
        <time>2026-09-04T12:18:24+00:00</time>
      </trkpt>
      <trkpt lat="50.79658" lon="5.73724">
        <ele>66</ele>
        <time>2026-09-04T12:18:27+00:00</time>
      </trkpt>
      <trkpt lat="50.79676" lon="5.73758">
        <ele>67</ele>
        <time>2026-09-04T12:18:30+00:00</time>
      </trkpt>
      <trkpt lat="50.79707" lon="5.73798">
        <ele>67</ele>
        <time>2026-09-04T12:18:33+00:00</time>
      </trkpt>
      <trkpt lat="50.7971" lon="5.73805">
        <ele>68</ele>
        <time>2026-09-04T12:18:36+00:00</time>
      </trkpt>
      <trkpt lat="50.79706" lon="5.73835">
        <ele>68</ele>
        <time>2026-09-04T12:18:39+00:00</time>
      </trkpt>
      <trkpt lat="50.79705" lon="5.73875">
        <ele>69</ele>
        <time>2026-09-04T12:18:42+00:00</time>
      </trkpt>
      <trkpt lat="50.79707" lon="5.73879">
        <ele>69</ele>
        <time>2026-09-04T12:18:45+00:00</time>
      </trkpt>
      <trkpt lat="50.79703" lon="5.73936">
        <ele>71</ele>
        <time>2026-09-04T12:18:48+00:00</time>
      </trkpt>
      <trkpt lat="50.79728" lon="5.73949">
        <ele>71</ele>
        <time>2026-09-04T12:18:51+00:00</time>
      </trkpt>
      <trkpt lat="50.79769" lon="5.73969">
        <ele>71</ele>
        <time>2026-09-04T12:18:54+00:00</time>
      </trkpt>
      <trkpt lat="50.79793" lon="5.73927">
        <ele>73</ele>
        <time>2026-09-04T12:18:57+00:00</time>
      </trkpt>
      <trkpt lat="50.79801" lon="5.73941">
        <ele>74</ele>
        <time>2026-09-04T12:19:00+00:00</time>
      </trkpt>
      <trkpt lat="50.79815" lon="5.73961">
        <ele>75</ele>
        <time>2026-09-04T12:19:03+00:00</time>
      </trkpt>
      <trkpt lat="50.79834" lon="5.73987">
        <ele>75</ele>
        <time>2026-09-04T12:19:06+00:00</time>
      </trkpt>
      <trkpt lat="50.79849" lon="5.74016">
        <ele>76</ele>
        <time>2026-09-04T12:19:09+00:00</time>
      </trkpt>
      <trkpt lat="50.79867" lon="5.74052">
        <ele>77</ele>
        <time>2026-09-04T12:19:12+00:00</time>
      </trkpt>
      <trkpt lat="50.7989" lon="5.74108">
        <ele>81</ele>
        <time>2026-09-04T12:19:15+00:00</time>
      </trkpt>
      <trkpt lat="50.79913" lon="5.74153">
        <ele>84</ele>
        <time>2026-09-04T12:19:18+00:00</time>
      </trkpt>
      <trkpt lat="50.7992" lon="5.7417">
        <ele>84</ele>
        <time>2026-09-04T12:19:21+00:00</time>
      </trkpt>
      <trkpt lat="50.7993" lon="5.74213">
        <ele>87</ele>
        <time>2026-09-04T12:19:24+00:00</time>
      </trkpt>
      <trkpt lat="50.79935" lon="5.74244">
        <ele>89</ele>
        <time>2026-09-04T12:19:27+00:00</time>
      </trkpt>
      <trkpt lat="50.79938" lon="5.74282">
        <ele>92</ele>
        <time>2026-09-04T12:19:30+00:00</time>
      </trkpt>
      <trkpt lat="50.79941" lon="5.74282">
        <ele>93</ele>
        <time>2026-09-04T12:19:33+00:00</time>
      </trkpt>
      <trkpt lat="50.7997" lon="5.74271">
        <ele>92</ele>
        <time>2026-09-04T12:19:36+00:00</time>
      </trkpt>
      <trkpt lat="50.8" lon="5.74261">
        <ele>92</ele>
        <time>2026-09-04T12:19:39+00:00</time>
      </trkpt>
      <trkpt lat="50.80049" lon="5.74243">
        <ele>90</ele>
        <time>2026-09-04T12:19:42+00:00</time>
      </trkpt>
      <trkpt lat="50.8005" lon="5.74238">
        <ele>89</ele>
        <time>2026-09-04T12:19:45+00:00</time>
      </trkpt>
      <trkpt lat="50.80046" lon="5.74196">
        <ele>86</ele>
        <time>2026-09-04T12:19:48+00:00</time>
      </trkpt>
      <trkpt lat="50.80038" lon="5.74116">
        <ele>82</ele>
        <time>2026-09-04T12:19:51+00:00</time>
      </trkpt>
      <trkpt lat="50.80069" lon="5.74116">
        <ele>82</ele>
        <time>2026-09-04T12:19:54+00:00</time>
      </trkpt>
      <trkpt lat="50.80099" lon="5.74115">
        <ele>83</ele>
        <time>2026-09-04T12:19:57+00:00</time>
      </trkpt>
      <trkpt lat="50.80146" lon="5.74115">
        <ele>83</ele>
        <time>2026-09-04T12:20:00+00:00</time>
      </trkpt>
      <trkpt lat="50.80177" lon="5.74121">
        <ele>81</ele>
        <time>2026-09-04T12:20:03+00:00</time>
      </trkpt>
      <trkpt lat="50.80208" lon="5.74127">
        <ele>81</ele>
        <time>2026-09-04T12:20:06+00:00</time>
      </trkpt>
      <trkpt lat="50.80266" lon="5.74139">
        <ele>80</ele>
        <time>2026-09-04T12:20:09+00:00</time>
      </trkpt>
      <trkpt lat="50.80269" lon="5.74099">
        <ele>80</ele>
        <time>2026-09-04T12:20:12+00:00</time>
      </trkpt>
      <trkpt lat="50.80295" lon="5.74104">
        <ele>78</ele>
        <time>2026-09-04T12:20:15+00:00</time>
      </trkpt>
      <trkpt lat="50.80339" lon="5.74111">
        <ele>77</ele>
        <time>2026-09-04T12:20:18+00:00</time>
      </trkpt>
      <trkpt lat="50.80337" lon="5.74119">
        <ele>75</ele>
        <time>2026-09-04T12:20:21+00:00</time>
      </trkpt>
      <trkpt lat="50.8034" lon="5.7412">
        <ele>75</ele>
        <time>2026-09-04T12:20:24+00:00</time>
      </trkpt>
      <trkpt lat="50.80354" lon="5.74112">
        <ele>77</ele>
        <time>2026-09-04T12:20:27+00:00</time>
      </trkpt>
      <trkpt lat="50.80372" lon="5.74105">
        <ele>77</ele>
        <time>2026-09-04T12:20:30+00:00</time>
      </trkpt>
      <trkpt lat="50.80405" lon="5.7411">
        <ele>90</ele>
        <time>2026-09-04T12:20:33+00:00</time>
      </trkpt>
      <trkpt lat="50.80427" lon="5.7411">
        <ele>90</ele>
        <time>2026-09-04T12:20:36+00:00</time>
      </trkpt>
      <trkpt lat="50.80449" lon="5.7411">
        <ele>90</ele>
        <time>2026-09-04T12:20:39+00:00</time>
      </trkpt>
      <trkpt lat="50.80479" lon="5.74108">
        <ele>90</ele>
        <time>2026-09-04T12:20:42+00:00</time>
      </trkpt>
      <trkpt lat="50.80509" lon="5.74106">
        <ele>91</ele>
        <time>2026-09-04T12:20:45+00:00</time>
      </trkpt>
      <trkpt lat="50.80549" lon="5.74103">
        <ele>95</ele>
        <time>2026-09-04T12:20:48+00:00</time>
      </trkpt>
      <trkpt lat="50.8056" lon="5.74105">
        <ele>97</ele>
        <time>2026-09-04T12:20:51+00:00</time>
      </trkpt>
      <trkpt lat="50.80574" lon="5.74112">
        <ele>96</ele>
        <time>2026-09-04T12:20:54+00:00</time>
      </trkpt>
      <trkpt lat="50.80578" lon="5.74112">
        <ele>103</ele>
        <time>2026-09-04T12:20:57+00:00</time>
      </trkpt>
      <trkpt lat="50.80601" lon="5.74081">
        <ele>96</ele>
        <time>2026-09-04T12:21:00+00:00</time>
      </trkpt>
      <trkpt lat="50.80608" lon="5.74076">
        <ele>97</ele>
        <time>2026-09-04T12:21:03+00:00</time>
      </trkpt>
      <trkpt lat="50.80616" lon="5.74074">
        <ele>96</ele>
        <time>2026-09-04T12:21:06+00:00</time>
      </trkpt>
      <trkpt lat="50.80634" lon="5.74074">
        <ele>97</ele>
        <time>2026-09-04T12:21:09+00:00</time>
      </trkpt>
      <trkpt lat="50.80657" lon="5.74075">
        <ele>96</ele>
        <time>2026-09-04T12:21:12+00:00</time>
      </trkpt>
      <trkpt lat="50.80662" lon="5.74044">
        <ele>96</ele>
        <time>2026-09-04T12:21:15+00:00</time>
      </trkpt>
      <trkpt lat="50.80668" lon="5.74036">
        <ele>95</ele>
        <time>2026-09-04T12:21:18+00:00</time>
      </trkpt>
      <trkpt lat="50.80696" lon="5.74039">
        <ele>97</ele>
        <time>2026-09-04T12:21:21+00:00</time>
      </trkpt>
      <trkpt lat="50.80725" lon="5.74042">
        <ele>98</ele>
        <time>2026-09-04T12:21:24+00:00</time>
      </trkpt>
      <trkpt lat="50.8077" lon="5.74047">
        <ele>99</ele>
        <time>2026-09-04T12:21:27+00:00</time>
      </trkpt>
      <trkpt lat="50.80781" lon="5.74043">
        <ele>103</ele>
        <time>2026-09-04T12:21:30+00:00</time>
      </trkpt>
      <trkpt lat="50.80787" lon="5.74034">
        <ele>98</ele>
        <time>2026-09-04T12:21:33+00:00</time>
      </trkpt>
      <trkpt lat="50.8079" lon="5.74023">
        <ele>98</ele>
        <time>2026-09-04T12:21:36+00:00</time>
      </trkpt>
      <trkpt lat="50.80792" lon="5.73989">
        <ele>98</ele>
        <time>2026-09-04T12:21:39+00:00</time>
      </trkpt>
      <trkpt lat="50.80796" lon="5.73969">
        <ele>93</ele>
        <time>2026-09-04T12:21:42+00:00</time>
      </trkpt>
      <trkpt lat="50.80799" lon="5.73962">
        <ele>93</ele>
        <time>2026-09-04T12:21:45+00:00</time>
      </trkpt>
      <trkpt lat="50.80808" lon="5.73959">
        <ele>90</ele>
        <time>2026-09-04T12:21:48+00:00</time>
      </trkpt>
      <trkpt lat="50.80835" lon="5.73968">
        <ele>91</ele>
        <time>2026-09-04T12:21:51+00:00</time>
      </trkpt>
      <trkpt lat="50.80862" lon="5.73976">
        <ele>90</ele>
        <time>2026-09-04T12:21:54+00:00</time>
      </trkpt>
      <trkpt lat="50.809" lon="5.73989">
        <ele>90</ele>
        <time>2026-09-04T12:21:57+00:00</time>
      </trkpt>
      <trkpt lat="50.80926" lon="5.74012">
        <ele>91</ele>
        <time>2026-09-04T12:22:00+00:00</time>
      </trkpt>
      <trkpt lat="50.80943" lon="5.74036">
        <ele>92</ele>
        <time>2026-09-04T12:22:03+00:00</time>
      </trkpt>
      <trkpt lat="50.80962" lon="5.74064">
        <ele>94</ele>
        <time>2026-09-04T12:22:06+00:00</time>
      </trkpt>
      <trkpt lat="50.80973" lon="5.7409">
        <ele>97</ele>
        <time>2026-09-04T12:22:09+00:00</time>
      </trkpt>
      <trkpt lat="50.80992" lon="5.7414">
        <ele>100</ele>
        <time>2026-09-04T12:22:12+00:00</time>
      </trkpt>
      <trkpt lat="50.80996" lon="5.74159">
        <ele>101</ele>
        <time>2026-09-04T12:22:15+00:00</time>
      </trkpt>
      <trkpt lat="50.80995" lon="5.74177">
        <ele>99</ele>
        <time>2026-09-04T12:22:18+00:00</time>
      </trkpt>
      <trkpt lat="50.81001" lon="5.74203">
        <ele>99</ele>
        <time>2026-09-04T12:22:21+00:00</time>
      </trkpt>
      <trkpt lat="50.81007" lon="5.74218">
        <ele>99</ele>
        <time>2026-09-04T12:22:24+00:00</time>
      </trkpt>
      <trkpt lat="50.81011" lon="5.74224">
        <ele>98</ele>
        <time>2026-09-04T12:22:27+00:00</time>
      </trkpt>
      <trkpt lat="50.81013" lon="5.74232">
        <ele>97</ele>
        <time>2026-09-04T12:22:30+00:00</time>
      </trkpt>
      <trkpt lat="50.81015" lon="5.74234">
        <ele>97</ele>
        <time>2026-09-04T12:22:33+00:00</time>
      </trkpt>
      <trkpt lat="50.81034" lon="5.74235">
        <ele>88</ele>
        <time>2026-09-04T12:22:36+00:00</time>
      </trkpt>
      <trkpt lat="50.8106" lon="5.74243">
        <ele>86</ele>
        <time>2026-09-04T12:22:39+00:00</time>
      </trkpt>
      <trkpt lat="50.8108" lon="5.74246">
        <ele>86</ele>
        <time>2026-09-04T12:22:42+00:00</time>
      </trkpt>
      <trkpt lat="50.81089" lon="5.74249">
        <ele>85</ele>
        <time>2026-09-04T12:22:45+00:00</time>
      </trkpt>
      <trkpt lat="50.81097" lon="5.74261">
        <ele>86</ele>
        <time>2026-09-04T12:22:48+00:00</time>
      </trkpt>
      <trkpt lat="50.8109" lon="5.74279">
        <ele>90</ele>
        <time>2026-09-04T12:22:51+00:00</time>
      </trkpt>
      <trkpt lat="50.81087" lon="5.74296">
        <ele>98</ele>
        <time>2026-09-04T12:22:54+00:00</time>
      </trkpt>
      <trkpt lat="50.81087" lon="5.74307">
        <ele>101</ele>
        <time>2026-09-04T12:22:57+00:00</time>
      </trkpt>
      <trkpt lat="50.81095" lon="5.74354">
        <ele>111</ele>
        <time>2026-09-04T12:23:00+00:00</time>
      </trkpt>
      <trkpt lat="50.811" lon="5.74395">
        <ele>122</ele>
        <time>2026-09-04T12:23:03+00:00</time>
      </trkpt>
      <trkpt lat="50.81109" lon="5.7444">
        <ele>124</ele>
        <time>2026-09-04T12:23:06+00:00</time>
      </trkpt>
      <trkpt lat="50.81112" lon="5.74483">
        <ele>126</ele>
        <time>2026-09-04T12:23:09+00:00</time>
      </trkpt>
      <trkpt lat="50.81108" lon="5.74501">
        <ele>132</ele>
        <time>2026-09-04T12:23:12+00:00</time>
      </trkpt>
      <trkpt lat="50.81091" lon="5.74536">
        <ele>134</ele>
        <time>2026-09-04T12:23:15+00:00</time>
      </trkpt>
      <trkpt lat="50.81074" lon="5.74572">
        <ele>138</ele>
        <time>2026-09-04T12:23:18+00:00</time>
      </trkpt>
      <trkpt lat="50.81044" lon="5.74635">
        <ele>142</ele>
        <time>2026-09-04T12:23:21+00:00</time>
      </trkpt>
      <trkpt lat="50.8107" lon="5.74657">
        <ele>143</ele>
        <time>2026-09-04T12:23:24+00:00</time>
      </trkpt>
      <trkpt lat="50.81095" lon="5.74679">
        <ele>144</ele>
        <time>2026-09-04T12:23:27+00:00</time>
      </trkpt>
      <trkpt lat="50.81125" lon="5.74705">
        <ele>145</ele>
        <time>2026-09-04T12:23:30+00:00</time>
      </trkpt>
      <trkpt lat="50.81153" lon="5.7473">
        <ele>145</ele>
        <time>2026-09-04T12:23:33+00:00</time>
      </trkpt>
      <trkpt lat="50.81181" lon="5.74755">
        <ele>145</ele>
        <time>2026-09-04T12:23:36+00:00</time>
      </trkpt>
      <trkpt lat="50.81208" lon="5.7478">
        <ele>145</ele>
        <time>2026-09-04T12:23:39+00:00</time>
      </trkpt>
      <trkpt lat="50.81237" lon="5.74806">
        <ele>145</ele>
        <time>2026-09-04T12:23:42+00:00</time>
      </trkpt>
      <trkpt lat="50.81232" lon="5.74819">
        <ele>147</ele>
        <time>2026-09-04T12:23:45+00:00</time>
      </trkpt>
      <trkpt lat="50.81216" lon="5.7485">
        <ele>145</ele>
        <time>2026-09-04T12:23:48+00:00</time>
      </trkpt>
      <trkpt lat="50.81204" lon="5.74866">
        <ele>145</ele>
        <time>2026-09-04T12:23:51+00:00</time>
      </trkpt>
      <trkpt lat="50.81194" lon="5.74874">
        <ele>146</ele>
        <time>2026-09-04T12:23:54+00:00</time>
      </trkpt>
      <trkpt lat="50.81188" lon="5.74876">
        <ele>146</ele>
        <time>2026-09-04T12:23:57+00:00</time>
      </trkpt>
      <trkpt lat="50.81177" lon="5.74876">
        <ele>147</ele>
        <time>2026-09-04T12:24:00+00:00</time>
      </trkpt>
      <trkpt lat="50.81162" lon="5.74872">
        <ele>148</ele>
        <time>2026-09-04T12:24:03+00:00</time>
      </trkpt>
      <trkpt lat="50.81155" lon="5.74866">
        <ele>148</ele>
        <time>2026-09-04T12:24:06+00:00</time>
      </trkpt>
      <trkpt lat="50.81145" lon="5.7491">
        <ele>148</ele>
        <time>2026-09-04T12:24:09+00:00</time>
      </trkpt>
      <trkpt lat="50.81135" lon="5.74953">
        <ele>147</ele>
        <time>2026-09-04T12:24:12+00:00</time>
      </trkpt>
      <trkpt lat="50.81123" lon="5.75007">
        <ele>141</ele>
        <time>2026-09-04T12:24:15+00:00</time>
      </trkpt>
      <trkpt lat="50.81124" lon="5.7502">
        <ele>139</ele>
        <time>2026-09-04T12:24:18+00:00</time>
      </trkpt>
      <trkpt lat="50.81127" lon="5.75023">
        <ele>139</ele>
        <time>2026-09-04T12:24:21+00:00</time>
      </trkpt>
      <trkpt lat="50.81136" lon="5.75025">
        <ele>141</ele>
        <time>2026-09-04T12:24:24+00:00</time>
      </trkpt>
      <trkpt lat="50.81162" lon="5.74994">
        <ele>142</ele>
        <time>2026-09-04T12:24:27+00:00</time>
      </trkpt>
      <trkpt lat="50.81188" lon="5.74963">
        <ele>143</ele>
        <time>2026-09-04T12:24:30+00:00</time>
      </trkpt>
      <trkpt lat="50.81214" lon="5.74931">
        <ele>143</ele>
        <time>2026-09-04T12:24:33+00:00</time>
      </trkpt>
      <trkpt lat="50.81249" lon="5.7489">
        <ele>142</ele>
        <time>2026-09-04T12:24:36+00:00</time>
      </trkpt>
      <trkpt lat="50.8128" lon="5.7485">
        <ele>137</ele>
        <time>2026-09-04T12:24:39+00:00</time>
      </trkpt>
      <trkpt lat="50.81294" lon="5.74836">
        <ele>133</ele>
        <time>2026-09-04T12:24:42+00:00</time>
      </trkpt>
      <trkpt lat="50.81309" lon="5.74809">
        <ele>134</ele>
        <time>2026-09-04T12:24:45+00:00</time>
      </trkpt>
      <trkpt lat="50.81308" lon="5.74802">
        <ele>130</ele>
        <time>2026-09-04T12:24:48+00:00</time>
      </trkpt>
      <trkpt lat="50.81292" lon="5.74766">
        <ele>132</ele>
        <time>2026-09-04T12:24:51+00:00</time>
      </trkpt>
      <trkpt lat="50.81276" lon="5.7473">
        <ele>130</ele>
        <time>2026-09-04T12:24:54+00:00</time>
      </trkpt>
      <trkpt lat="50.81256" lon="5.74685">
        <ele>130</ele>
        <time>2026-09-04T12:24:57+00:00</time>
      </trkpt>
      <trkpt lat="50.81238" lon="5.74649">
        <ele>130</ele>
        <time>2026-09-04T12:25:00+00:00</time>
      </trkpt>
      <trkpt lat="50.81221" lon="5.74613">
        <ele>126</ele>
        <time>2026-09-04T12:25:03+00:00</time>
      </trkpt>
      <trkpt lat="50.81202" lon="5.74574">
        <ele>125</ele>
        <time>2026-09-04T12:25:06+00:00</time>
      </trkpt>
      <trkpt lat="50.81186" lon="5.74546">
        <ele>123</ele>
        <time>2026-09-04T12:25:09+00:00</time>
      </trkpt>
      <trkpt lat="50.81166" lon="5.7451">
        <ele>121</ele>
        <time>2026-09-04T12:25:12+00:00</time>
      </trkpt>
      <trkpt lat="50.8116" lon="5.74501">
        <ele>120</ele>
        <time>2026-09-04T12:25:15+00:00</time>
      </trkpt>
      <trkpt lat="50.81168" lon="5.74503">
        <ele>120</ele>
        <time>2026-09-04T12:25:18+00:00</time>
      </trkpt>
      <trkpt lat="50.81183" lon="5.74516">
        <ele>116</ele>
        <time>2026-09-04T12:25:21+00:00</time>
      </trkpt>
      <trkpt lat="50.81202" lon="5.74532">
        <ele>111</ele>
        <time>2026-09-04T12:25:24+00:00</time>
      </trkpt>
      <trkpt lat="50.81223" lon="5.74562">
        <ele>110</ele>
        <time>2026-09-04T12:25:27+00:00</time>
      </trkpt>
      <trkpt lat="50.81244" lon="5.74592">
        <ele>110</ele>
        <time>2026-09-04T12:25:30+00:00</time>
      </trkpt>
      <trkpt lat="50.81266" lon="5.74623">
        <ele>110</ele>
        <time>2026-09-04T12:25:33+00:00</time>
      </trkpt>
      <trkpt lat="50.81267" lon="5.74627">
        <ele>110</ele>
        <time>2026-09-04T12:25:36+00:00</time>
      </trkpt>
      <trkpt lat="50.8127" lon="5.74654">
        <ele>114</ele>
        <time>2026-09-04T12:25:39+00:00</time>
      </trkpt>
      <trkpt lat="50.81274" lon="5.74671">
        <ele>119</ele>
        <time>2026-09-04T12:25:42+00:00</time>
      </trkpt>
      <trkpt lat="50.81282" lon="5.7469">
        <ele>119</ele>
        <time>2026-09-04T12:25:45+00:00</time>
      </trkpt>
      <trkpt lat="50.81283" lon="5.74724">
        <ele>123</ele>
        <time>2026-09-04T12:25:48+00:00</time>
      </trkpt>
      <trkpt lat="50.81294" lon="5.74735">
        <ele>127</ele>
        <time>2026-09-04T12:25:51+00:00</time>
      </trkpt>
      <trkpt lat="50.81308" lon="5.74753">
        <ele>121</ele>
        <time>2026-09-04T12:25:54+00:00</time>
      </trkpt>
      <trkpt lat="50.8132" lon="5.74756">
        <ele>123</ele>
        <time>2026-09-04T12:25:57+00:00</time>
      </trkpt>
      <trkpt lat="50.81328" lon="5.74762">
        <ele>120</ele>
        <time>2026-09-04T12:26:00+00:00</time>
      </trkpt>
      <trkpt lat="50.81335" lon="5.74773">
        <ele>117</ele>
        <time>2026-09-04T12:26:03+00:00</time>
      </trkpt>
      <trkpt lat="50.81345" lon="5.74783">
        <ele>116</ele>
        <time>2026-09-04T12:26:06+00:00</time>
      </trkpt>
      <trkpt lat="50.81355" lon="5.74785">
        <ele>113</ele>
        <time>2026-09-04T12:26:09+00:00</time>
      </trkpt>
      <trkpt lat="50.81364" lon="5.74791">
        <ele>111</ele>
        <time>2026-09-04T12:26:12+00:00</time>
      </trkpt>
      <trkpt lat="50.81385" lon="5.74799">
        <ele>105</ele>
        <time>2026-09-04T12:26:15+00:00</time>
      </trkpt>
      <trkpt lat="50.81397" lon="5.74797">
        <ele>103</ele>
        <time>2026-09-04T12:26:18+00:00</time>
      </trkpt>
      <trkpt lat="50.81407" lon="5.74786">
        <ele>99</ele>
        <time>2026-09-04T12:26:21+00:00</time>
      </trkpt>
      <trkpt lat="50.81416" lon="5.74781">
        <ele>94</ele>
        <time>2026-09-04T12:26:24+00:00</time>
      </trkpt>
      <trkpt lat="50.81433" lon="5.74781">
        <ele>83</ele>
        <time>2026-09-04T12:26:27+00:00</time>
      </trkpt>
      <trkpt lat="50.81451" lon="5.74782">
        <ele>78</ele>
        <time>2026-09-04T12:26:30+00:00</time>
      </trkpt>
      <trkpt lat="50.81475" lon="5.7479">
        <ele>76</ele>
        <time>2026-09-04T12:26:33+00:00</time>
      </trkpt>
      <trkpt lat="50.81504" lon="5.74804">
        <ele>73</ele>
        <time>2026-09-04T12:26:36+00:00</time>
      </trkpt>
      <trkpt lat="50.8152" lon="5.74814">
        <ele>73</ele>
        <time>2026-09-04T12:26:39+00:00</time>
      </trkpt>
      <trkpt lat="50.81525" lon="5.74826">
        <ele>74</ele>
        <time>2026-09-04T12:26:42+00:00</time>
      </trkpt>
      <trkpt lat="50.81535" lon="5.7482">
        <ele>73</ele>
        <time>2026-09-04T12:26:45+00:00</time>
      </trkpt>
      <trkpt lat="50.8155" lon="5.74803">
        <ele>76</ele>
        <time>2026-09-04T12:26:48+00:00</time>
      </trkpt>
      <trkpt lat="50.81531" lon="5.7477">
        <ele>76</ele>
        <time>2026-09-04T12:26:51+00:00</time>
      </trkpt>
      <trkpt lat="50.81494" lon="5.74705">
        <ele>75</ele>
        <time>2026-09-04T12:26:54+00:00</time>
      </trkpt>
      <trkpt lat="50.81483" lon="5.7468">
        <ele>75</ele>
        <time>2026-09-04T12:26:57+00:00</time>
      </trkpt>
      <trkpt lat="50.81472" lon="5.74651">
        <ele>73</ele>
        <time>2026-09-04T12:27:00+00:00</time>
      </trkpt>
      <trkpt lat="50.81461" lon="5.74616">
        <ele>73</ele>
        <time>2026-09-04T12:27:03+00:00</time>
      </trkpt>
      <trkpt lat="50.81447" lon="5.7457">
        <ele>72</ele>
        <time>2026-09-04T12:27:06+00:00</time>
      </trkpt>
      <trkpt lat="50.81431" lon="5.74525">
        <ele>70</ele>
        <time>2026-09-04T12:27:09+00:00</time>
      </trkpt>
      <trkpt lat="50.81416" lon="5.7449">
        <ele>70</ele>
        <time>2026-09-04T12:27:12+00:00</time>
      </trkpt>
      <trkpt lat="50.81398" lon="5.7446">
        <ele>70</ele>
        <time>2026-09-04T12:27:15+00:00</time>
      </trkpt>
      <trkpt lat="50.81369" lon="5.74411">
        <ele>70</ele>
        <time>2026-09-04T12:27:18+00:00</time>
      </trkpt>
      <trkpt lat="50.81364" lon="5.74398">
        <ele>70</ele>
        <time>2026-09-04T12:27:21+00:00</time>
      </trkpt>
      <trkpt lat="50.81357" lon="5.74362">
        <ele>70</ele>
        <time>2026-09-04T12:27:24+00:00</time>
      </trkpt>
      <trkpt lat="50.81344" lon="5.743">
        <ele>70</ele>
        <time>2026-09-04T12:27:27+00:00</time>
      </trkpt>
      <trkpt lat="50.81348" lon="5.74301">
        <ele>70</ele>
        <time>2026-09-04T12:27:30+00:00</time>
      </trkpt>
      <trkpt lat="50.81367" lon="5.74303">
        <ele>69</ele>
        <time>2026-09-04T12:27:33+00:00</time>
      </trkpt>
      <trkpt lat="50.81384" lon="5.74301">
        <ele>67</ele>
        <time>2026-09-04T12:27:36+00:00</time>
      </trkpt>
      <trkpt lat="50.8139" lon="5.74298">
        <ele>67</ele>
        <time>2026-09-04T12:27:39+00:00</time>
      </trkpt>
      <trkpt lat="50.81395" lon="5.74289">
        <ele>66</ele>
        <time>2026-09-04T12:27:42+00:00</time>
      </trkpt>
      <trkpt lat="50.814" lon="5.74273">
        <ele>66</ele>
        <time>2026-09-04T12:27:45+00:00</time>
      </trkpt>
      <trkpt lat="50.814" lon="5.74321">
        <ele>65</ele>
        <time>2026-09-04T12:27:48+00:00</time>
      </trkpt>
      <trkpt lat="50.81406" lon="5.74338">
        <ele>65</ele>
        <time>2026-09-04T12:27:51+00:00</time>
      </trkpt>
      <trkpt lat="50.81413" lon="5.74351">
        <ele>65</ele>
        <time>2026-09-04T12:27:54+00:00</time>
      </trkpt>
      <trkpt lat="50.81427" lon="5.74366">
        <ele>65</ele>
        <time>2026-09-04T12:27:57+00:00</time>
      </trkpt>
      <trkpt lat="50.81436" lon="5.7438">
        <ele>65</ele>
        <time>2026-09-04T12:28:00+00:00</time>
      </trkpt>
      <trkpt lat="50.81446" lon="5.74394">
        <ele>65</ele>
        <time>2026-09-04T12:28:03+00:00</time>
      </trkpt>
      <trkpt lat="50.81457" lon="5.74421">
        <ele>69</ele>
        <time>2026-09-04T12:28:06+00:00</time>
      </trkpt>
      <trkpt lat="50.8146" lon="5.74442">
        <ele>71</ele>
        <time>2026-09-04T12:28:09+00:00</time>
      </trkpt>
      <trkpt lat="50.81459" lon="5.7448">
        <ele>73</ele>
        <time>2026-09-04T12:28:12+00:00</time>
      </trkpt>
      <trkpt lat="50.81458" lon="5.74555">
        <ele>73</ele>
        <time>2026-09-04T12:28:15+00:00</time>
      </trkpt>
      <trkpt lat="50.81463" lon="5.74583">
        <ele>73</ele>
        <time>2026-09-04T12:28:18+00:00</time>
      </trkpt>
      <trkpt lat="50.81473" lon="5.74622">
        <ele>73</ele>
        <time>2026-09-04T12:28:21+00:00</time>
      </trkpt>
      <trkpt lat="50.81492" lon="5.74673">
        <ele>77</ele>
        <time>2026-09-04T12:28:24+00:00</time>
      </trkpt>
      <trkpt lat="50.81502" lon="5.74667">
        <ele>80</ele>
        <time>2026-09-04T12:28:27+00:00</time>
      </trkpt>
      <trkpt lat="50.81508" lon="5.74658">
        <ele>80</ele>
        <time>2026-09-04T12:28:30+00:00</time>
      </trkpt>
      <trkpt lat="50.81512" lon="5.74644">
        <ele>83</ele>
        <time>2026-09-04T12:28:33+00:00</time>
      </trkpt>
      <trkpt lat="50.81515" lon="5.74601">
        <ele>81</ele>
        <time>2026-09-04T12:28:36+00:00</time>
      </trkpt>
      <trkpt lat="50.81518" lon="5.74559">
        <ele>82</ele>
        <time>2026-09-04T12:28:39+00:00</time>
      </trkpt>
      <trkpt lat="50.81523" lon="5.74499">
        <ele>83</ele>
        <time>2026-09-04T12:28:42+00:00</time>
      </trkpt>
      <trkpt lat="50.81518" lon="5.74463">
        <ele>85</ele>
        <time>2026-09-04T12:28:45+00:00</time>
      </trkpt>
      <trkpt lat="50.81517" lon="5.7443">
        <ele>88</ele>
        <time>2026-09-04T12:28:48+00:00</time>
      </trkpt>
      <trkpt lat="50.81512" lon="5.74367">
        <ele>88</ele>
        <time>2026-09-04T12:28:51+00:00</time>
      </trkpt>
      <trkpt lat="50.81511" lon="5.74315">
        <ele>87</ele>
        <time>2026-09-04T12:28:54+00:00</time>
      </trkpt>
      <trkpt lat="50.81507" lon="5.74286">
        <ele>85</ele>
        <time>2026-09-04T12:28:57+00:00</time>
      </trkpt>
      <trkpt lat="50.81504" lon="5.7425">
        <ele>85</ele>
        <time>2026-09-04T12:29:00+00:00</time>
      </trkpt>
      <trkpt lat="50.815" lon="5.74209">
        <ele>81</ele>
        <time>2026-09-04T12:29:03+00:00</time>
      </trkpt>
      <trkpt lat="50.81501" lon="5.74187">
        <ele>79</ele>
        <time>2026-09-04T12:29:06+00:00</time>
      </trkpt>
      <trkpt lat="50.81503" lon="5.74181">
        <ele>82</ele>
        <time>2026-09-04T12:29:09+00:00</time>
      </trkpt>
      <trkpt lat="50.8151" lon="5.74177">
        <ele>80</ele>
        <time>2026-09-04T12:29:12+00:00</time>
      </trkpt>
      <trkpt lat="50.81533" lon="5.74183">
        <ele>84</ele>
        <time>2026-09-04T12:29:15+00:00</time>
      </trkpt>
      <trkpt lat="50.81538" lon="5.74185">
        <ele>84</ele>
        <time>2026-09-04T12:29:18+00:00</time>
      </trkpt>
      <trkpt lat="50.81547" lon="5.74186">
        <ele>85</ele>
        <time>2026-09-04T12:29:21+00:00</time>
      </trkpt>
      <trkpt lat="50.81554" lon="5.74183">
        <ele>85</ele>
        <time>2026-09-04T12:29:24+00:00</time>
      </trkpt>
      <trkpt lat="50.81568" lon="5.74168">
        <ele>86</ele>
        <time>2026-09-04T12:29:27+00:00</time>
      </trkpt>
      <trkpt lat="50.81579" lon="5.7415">
        <ele>84</ele>
        <time>2026-09-04T12:29:30+00:00</time>
      </trkpt>
      <trkpt lat="50.81595" lon="5.74118">
        <ele>83</ele>
        <time>2026-09-04T12:29:33+00:00</time>
      </trkpt>
      <trkpt lat="50.81621" lon="5.74068">
        <ele>78</ele>
        <time>2026-09-04T12:29:36+00:00</time>
      </trkpt>
      <trkpt lat="50.81629" lon="5.7405">
        <ele>77</ele>
        <time>2026-09-04T12:29:39+00:00</time>
      </trkpt>
      <trkpt lat="50.8164" lon="5.74009">
        <ele>73</ele>
        <time>2026-09-04T12:29:42+00:00</time>
      </trkpt>
      <trkpt lat="50.81646" lon="5.73975">
        <ele>72</ele>
        <time>2026-09-04T12:29:45+00:00</time>
      </trkpt>
      <trkpt lat="50.81654" lon="5.7392">
        <ele>71</ele>
        <time>2026-09-04T12:29:48+00:00</time>
      </trkpt>
      <trkpt lat="50.81654" lon="5.73897">
        <ele>70</ele>
        <time>2026-09-04T12:29:51+00:00</time>
      </trkpt>
      <trkpt lat="50.81651" lon="5.73877">
        <ele>69</ele>
        <time>2026-09-04T12:29:54+00:00</time>
      </trkpt>
      <trkpt lat="50.81638" lon="5.73844">
        <ele>66</ele>
        <time>2026-09-04T12:29:57+00:00</time>
      </trkpt>
      <trkpt lat="50.81621" lon="5.73801">
        <ele>64</ele>
        <time>2026-09-04T12:30:00+00:00</time>
      </trkpt>
      <trkpt lat="50.81617" lon="5.73776">
        <ele>62</ele>
        <time>2026-09-04T12:30:03+00:00</time>
      </trkpt>
      <trkpt lat="50.81611" lon="5.73759">
        <ele>62</ele>
        <time>2026-09-04T12:30:06+00:00</time>
      </trkpt>
      <trkpt lat="50.81598" lon="5.73732">
        <ele>61</ele>
        <time>2026-09-04T12:30:09+00:00</time>
      </trkpt>
      <trkpt lat="50.81584" lon="5.73703">
        <ele>61</ele>
        <time>2026-09-04T12:30:12+00:00</time>
      </trkpt>
      <trkpt lat="50.81608" lon="5.73653">
        <ele>61</ele>
        <time>2026-09-04T12:30:15+00:00</time>
      </trkpt>
      <trkpt lat="50.81625" lon="5.73628">
        <ele>61</ele>
        <time>2026-09-04T12:30:18+00:00</time>
      </trkpt>
      <trkpt lat="50.81645" lon="5.73598">
        <ele>61</ele>
        <time>2026-09-04T12:30:21+00:00</time>
      </trkpt>
      <trkpt lat="50.81654" lon="5.73557">
        <ele>60</ele>
        <time>2026-09-04T12:30:24+00:00</time>
      </trkpt>
      <trkpt lat="50.81669" lon="5.73485">
        <ele>59</ele>
        <time>2026-09-04T12:30:27+00:00</time>
      </trkpt>
      <trkpt lat="50.81676" lon="5.73453">
        <ele>59</ele>
        <time>2026-09-04T12:30:30+00:00</time>
      </trkpt>
      <trkpt lat="50.81684" lon="5.73421">
        <ele>59</ele>
        <time>2026-09-04T12:30:33+00:00</time>
      </trkpt>
      <trkpt lat="50.81698" lon="5.73381">
        <ele>59</ele>
        <time>2026-09-04T12:30:36+00:00</time>
      </trkpt>
      <trkpt lat="50.81712" lon="5.73342">
        <ele>58</ele>
        <time>2026-09-04T12:30:39+00:00</time>
      </trkpt>
      <trkpt lat="50.81728" lon="5.73298">
        <ele>58</ele>
        <time>2026-09-04T12:30:42+00:00</time>
      </trkpt>
      <trkpt lat="50.81741" lon="5.73265">
        <ele>58</ele>
        <time>2026-09-04T12:30:45+00:00</time>
      </trkpt>
      <trkpt lat="50.81757" lon="5.73223">
        <ele>58</ele>
        <time>2026-09-04T12:30:48+00:00</time>
      </trkpt>
      <trkpt lat="50.81768" lon="5.73189">
        <ele>58</ele>
        <time>2026-09-04T12:30:51+00:00</time>
      </trkpt>
      <trkpt lat="50.81783" lon="5.73144">
        <ele>58</ele>
        <time>2026-09-04T12:30:54+00:00</time>
      </trkpt>
      <trkpt lat="50.81787" lon="5.73125">
        <ele>58</ele>
        <time>2026-09-04T12:30:57+00:00</time>
      </trkpt>
      <trkpt lat="50.81791" lon="5.73096">
        <ele>58</ele>
        <time>2026-09-04T12:31:00+00:00</time>
      </trkpt>
      <trkpt lat="50.81797" lon="5.73056">
        <ele>58</ele>
        <time>2026-09-04T12:31:03+00:00</time>
      </trkpt>
      <trkpt lat="50.81796" lon="5.73042">
        <ele>57</ele>
        <time>2026-09-04T12:31:06+00:00</time>
      </trkpt>
      <trkpt lat="50.8179" lon="5.73001">
        <ele>58</ele>
        <time>2026-09-04T12:31:09+00:00</time>
      </trkpt>
      <trkpt lat="50.81784" lon="5.7296">
        <ele>56</ele>
        <time>2026-09-04T12:31:12+00:00</time>
      </trkpt>
      <trkpt lat="50.81776" lon="5.72909">
        <ele>56</ele>
        <time>2026-09-04T12:31:15+00:00</time>
      </trkpt>
      <trkpt lat="50.81765" lon="5.72864">
        <ele>57</ele>
        <time>2026-09-04T12:31:18+00:00</time>
      </trkpt>
      <trkpt lat="50.81739" lon="5.72862">
        <ele>57</ele>
        <time>2026-09-04T12:31:21+00:00</time>
      </trkpt>
      <trkpt lat="50.81695" lon="5.72858">
        <ele>57</ele>
        <time>2026-09-04T12:31:24+00:00</time>
      </trkpt>
      <trkpt lat="50.8169" lon="5.72855">
        <ele>57</ele>
        <time>2026-09-04T12:31:27+00:00</time>
      </trkpt>
      <trkpt lat="50.81687" lon="5.72849">
        <ele>57</ele>
        <time>2026-09-04T12:31:30+00:00</time>
      </trkpt>
      <trkpt lat="50.81696" lon="5.7284">
        <ele>57</ele>
        <time>2026-09-04T12:31:33+00:00</time>
      </trkpt>
      <trkpt lat="50.81712" lon="5.72815">
        <ele>56</ele>
        <time>2026-09-04T12:31:36+00:00</time>
      </trkpt>
      <trkpt lat="50.81734" lon="5.72805">
        <ele>56</ele>
        <time>2026-09-04T12:31:39+00:00</time>
      </trkpt>
      <trkpt lat="50.81736" lon="5.72803">
        <ele>56</ele>
        <time>2026-09-04T12:31:42+00:00</time>
      </trkpt>
      <trkpt lat="50.81747" lon="5.7277">
        <ele>55</ele>
        <time>2026-09-04T12:31:45+00:00</time>
      </trkpt>
      <trkpt lat="50.81728" lon="5.72741">
        <ele>55</ele>
        <time>2026-09-04T12:31:48+00:00</time>
      </trkpt>
      <trkpt lat="50.81744" lon="5.72705">
        <ele>55</ele>
        <time>2026-09-04T12:31:51+00:00</time>
      </trkpt>
      <trkpt lat="50.81755" lon="5.72688">
        <ele>55</ele>
        <time>2026-09-04T12:31:54+00:00</time>
      </trkpt>
      <trkpt lat="50.81769" lon="5.72672">
        <ele>55</ele>
        <time>2026-09-04T12:31:57+00:00</time>
      </trkpt>
      <trkpt lat="50.81791" lon="5.72654">
        <ele>55</ele>
        <time>2026-09-04T12:32:00+00:00</time>
      </trkpt>
      <trkpt lat="50.81822" lon="5.72629">
        <ele>56</ele>
        <time>2026-09-04T12:32:03+00:00</time>
      </trkpt>
      <trkpt lat="50.81841" lon="5.72644">
        <ele>57</ele>
        <time>2026-09-04T12:32:06+00:00</time>
      </trkpt>
      <trkpt lat="50.81861" lon="5.72659">
        <ele>57</ele>
        <time>2026-09-04T12:32:09+00:00</time>
      </trkpt>
    </trkseg>
  </trk>
</gpx>
